GFSGBSN_700_temp_096.txt.gz
Temp
4 4 4 5 5 5 5 4 4 4 4 3 3 3 3 3 2 3 3 3 3 3 3 2 2 3 3 3 5 3 4 4 5 4 4 4 4 3 4 4 4 3 3 3 3 3 4
4 4 4 4 5 5 5 5 4 4 3 3 2 3 2 2 2 2 2 2 2 2 2 3 2 2 3 3 4 4 3 4 4 4 3 3 3 3 3 3 3 3 2 2 3 3 3
3 4 3 3 4 4 4 4 4 4 4 3 3 2 2 2 2 2 2 2 2 2 2 2 2 2 3 5 3 3 4 3 3 4 3 3 2 2 1 2 2 2 2 2 3 4 3
3 3 2 3 3 3 3 3 4 4 4 3 2 2 1 1 1 2 2 1 1 1 2 2 2 1 3 4 3 3 3 2 3 2 2 2 2 1 0 1 1 1 1 1 3 3 3
2 2 2 2 2 3 3 3 3 3 3 3 2 2 2 1 1 1 1 0 0 0 1 1 1 1 3 3 4 4 3 3 1 1 1 1 0 0 -0 0 0 0 1 1 2 3 3
2 2 2 2 2 2 3 3 3 3 3 2 2 1 1 1 0 0 0 -1 -1 0 -1 0 0 0 1 1 2 3 3 2 1 1 0 -0 -0 -1 -0 1 -1 0 0 1 1 3 2
1 2 2 2 2 2 2 3 3 3 2 2 2 0 -0 -0 -0 -1 -1 -1 -2 -1 -1 -0 -1 -1 0 1 1 2 2 1 1 -0 0 0 -1 -1 3 1 0 0 -0 -0 1 2 1
1 1 1 1 2 2 2 3 3 2 2 1 1 0 -1 -1 -1 -2 -2 -2 -2 -2 -2 -1 -1 -0 -1 -2 -1 -0 0 0 -0 -0 -1 -1 -1 1 1 -0 -0 -1 -0 0 1 1 1
0 1 1 1 1 2 2 3 2 2 1 1 -0 -1 -1 -2 -2 -2 -3 -3 -3 -3 -3 -0 1 1 1 -2 -1 -1 -1 -0 -1 -0 -1 -1 -0 0 -0 -0 -1 -0 -1 0 1 1 1
-1 1 1 1 1 1 2 2 2 1 1 -1 -2 -3 -2 -3 -3 -3 -3 -3 -3 -3 -5 -0 0 2 1 -1 -1 -1 -1 -1 -1 -1 -1 -1 -1 -0 -1 -1 -1 -1 1 1 1 -0 0
-2 -1 0 0 0 0 1 1 1 -1 -3 -2 -2 -2 -2 -3 -3 -3 -3 -3 -4 -5 -8 -1 -1 -0 -0 -1 -1 -0 -1 -1 -1 -1 -1 -1 -0 -1 -0 0 0 0 1 1 1 0 0
-3 -2 -1 -1 -0 -0 -1 0 -2 -3 -3 -2 -3 -3 -3 -3 -3 -4 -4 -5 -6 -8 -7 -1 -2 -1 -1 -1 -1 0 -1 -1 -1 -2 -2 -1 -1 -1 -0 0 0 0 0 0 0 0 -2
-3 -3 -2 -2 -2 -1 -2 -3 -3 -2 -3 -5 -5 -5 -4 -4 -5 -5 -5 -6 -8 -8 -2 -2 -2 -2 -1 -2 -2 -1 -1 -2 -2 -2 -2 -1 -1 -0 -0 -0 0 0 0 -1 -1 -2 -2
-5 -4 -4 -3 -5 -6 -5 -5 -5 -5 -5 -5 -5 -5 -5 -5 -6 -7 -8 -8 -8 -5 -3 -3 -2 -2 -2 -2 -2 -2 -1 -2 -2 -2 -1 -1 -1 -1 -1 -0 0 0 0 -0 -2 -2 -2
-6 -6 -5 -5 -6 -6 -6 -6 -5 -5 -5 -5 -6 -6 -6 -6 -7 -9 -8 -9 -8 -5 -4 -3 -4 -3 -2 -2 -2 -2 -2 -2 -2 -2 -1 -2 -2 -2 -2 -1 -1 -1 -0 -1 -1 -1 -1
-8 -7 -6 -6 -6 -6 -6 -6 -6 -6 -6 -6 -7 -7 -8 -8 -9 -9 -9 -9 -7 -5 -5 -5 -5 -5 -3 -2 -2 -2 -3 -4 -3 -3 -2 -2 -2 -2 -2 -2 -2 -1 -2 -2 -2 -3 -2
-8 -8 -8 -7 -7 -6 -7 -7 -7 -7 -7 -8 -8 -8 -8 -8 -10 -9 -9 -9 -8 -6 -6 -6 -6 -6 -3 -2 -2 -2 -4 -4 -4 -3 -3 -3 -3 -3 -2 -2 -2 -2 -2 -2 -3 -4 -4
-9 -9 -8 -8 -7 -7 -7 -7 -7 -7 -8 -8 -9 -9 -9 -10 -10 -10 -9 -8 -8 -6 -7 -6 -7 -6 -4 -3 -3 -3 -4 -4 -4 -4 -4 -4 -4 -4 -4 -3 -3 -3 -5 -5 -4 -5 -6
-9 -9 -9 -8 -8 -8 -8 -8 -8 -8 -9 -10 -11 -10 -9 -10 -10 -9 -9 -8 -7 -7 -7 -7 -7 -5 -4 -3 -3 -3 -4 -5 -6 -5 -5 -5 -6 -6 -6 -5 -6 -6 -6 -6 -7 -7 -7
-9 -9 -9 -9 -8 -8 -9 -9 -9 -10 -10 -11 -10 -10 -10 -9 -9 -8 -8 -8 -7 -7 -7 -6 -7 -7 -7 -5 -4 -5 -6 -7 -6 -6 -6 -5 -6 -6 -6 -5 -6 -6 -6 -6 -7 -8 -7
-9 -9 -9 -9 -9 -9 -10 -9 -10 -10 -10 -10 -9 -9 -8 -8 -8 -7 -7 -6 -6 -6 -7 -7 -6 -6 -6 -6 -5 -6 -6 -6 -7 -7 -7 -7 -7 -7 -7 -7 -8 -8 -7 -5 -6 -6 -8
-10 -10 -9 -9 -10 -10 -10 -10 -10 -9 -10 -10 -8 -8 -8 -7 -7 -7 -7 -6 -7 -7 -6 -6 -6 -6 -6 -6 -6 -6 -6 -7 -7 -7 -7 -7 -8 -8 -8 -7 -7 -7 -6 -7 -7 -7 -7
-10 -10 -9 -10 -10 -11 -11 -10 -10 -10 -9 -9 -8 -8 -8 -7 -7 -7 -7 -7 -7 -7 -7 -7 -7 -7 -7 -7 -7 -7 -7 -7 -7 -7 -8 -8 -8 -9 -9 -9 -8 -7 -5 -6 -7 -7 -7
-10 -10 -11 -11 -11 -11 -11 -10 -10 -10 -9 -9 -9 -8 -8 -7 -7 -7 -7 -7 -7 -7 -7 -8 -8 -8 -8 -7 -7 -7 -7 -7 -7 -7 -8 -9 -9 -9 -10 -9 -10 -6 -7 -7 -7 -7 -7
-10 -11 -11 -11 -11 -10 -9 -9 -9 -9 -9 -9 -8 -8 -8 -7 -8 -8 -8 -7 -7 -8 -8 -8 -8 -8 -8 -8 -8 -8 -8 -8 -8 -8 -8 -8 -8 -9 -9 -9 -8 -7 -7 -7 -8 -8 -8
-10 -11 -11 -12 -11 -10 -10 -10 -9 -10 -9 -9 -8 -8 -8 -8 -8 -8 -8 -8 -8 -8 -8 -8 -8 -8 -8 -8 -7 -8 -8 -9 -8 -8 -8 -8 -8 -9 -10 -10 -11 -8 -8 -8 -8 -9 -8
-11 -12 -12 -11 -10 -10 -10 -10 -9 -9 -9 -8 -8 -9 -8 -8 -8 -8 -8 -8 -8 -8 -8 -8 -8 -8 -8 -7 -7 -8 -9 -9 -8 -9 -9 -9 -9 -10 -10 -9 -8 -8 -8 -8 -9 -9 -8
-11 -11 -12 -11 -11 -11 -10 -9 -9 -9 -8 -8 -8 -9 -8 -8 -8 -9 -9 -8 -8 -8 -8 -8 -8 -8 -8 -8 -8 -8 -8 -9 -9 -9 -9 -9 -9 -9 -9 -9 -9 -9 -8 -9 -10 -9 -9
-11 -11 -12 -11 -10 -10 -9 -9 -9 -8 -8 -8 -8 -8 -9 -8 -8 -9 -8 -8 -8 -8 -8 -8 -8 -8 -8 -8 -8 -8 -8 -9 -9 -9 -9 -9 -9 -9 -9 -9 -10 -10 -9 -9 -9 -9 -8

GFSGBSN_700_temp_099.txt.gz
Temp
4 4 4 4 5 5 5 5 5 5 5 4 4 4 3 3 3 2 2 2 2 2 2 3 3 3 3 3 5 4 4 4 4 5 4 5 4 4 4 4 4 4 4 4 4 3 4
4 4 4 4 4 5 5 5 5 5 5 5 4 3 3 2 2 1 1 1 2 2 2 2 2 3 3 4 4 4 4 4 4 4 4 4 3 3 3 3 3 4 4 3 3 3 4
2 3 3 3 3 4 4 4 4 4 4 5 4 4 3 2 1 1 1 1 1 2 1 1 1 2 3 4 3 3 3 3 3 3 3 3 3 3 2 2 2 3 3 2 3 4 3
2 2 3 3 3 3 4 4 3 3 3 4 3 3 3 2 2 1 0 -0 1 0 1 1 1 1 2 2 2 3 3 2 2 2 2 2 2 1 2 1 1 2 1 2 2 3 2
2 2 2 2 2 2 3 3 3 3 3 3 3 3 3 2 2 1 0 -0 -0 0 0 -0 0 0 1 1 2 2 4 4 2 1 1 1 0 1 0 -0 1 0 0 1 1 2 2
1 1 2 2 2 2 2 2 3 3 3 3 3 3 2 2 2 1 -0 -1 -1 -2 -1 -1 -1 -0 1 1 1 2 2 2 1 -0 -0 -0 -1 -0 -1 -0 0 0 0 0 1 2 1
0 0 1 1 1 2 2 2 2 3 3 3 3 2 2 2 2 -0 -1 -2 -2 -2 -2 -1 -2 -0 1 1 0 1 -1 -0 1 -2 -1 -1 -0 -1 0 1 0 -0 -0 -0 1 2 1
-1 -0 0 1 1 1 2 2 2 2 2 3 3 2 2 1 1 -1 -2 -2 -3 -3 -3 -2 -2 -0 0 -1 -0 -2 -2 -2 -1 -0 -1 -2 -1 -0 -0 -0 -1 -1 -1 -0 1 1 0
-1 -1 -0 0 1 1 1 1 2 2 2 2 2 2 1 1 -1 -2 -2 -4 -3 -3 -3 -1 -1 -1 0 -2 0 1 -1 -4 -2 -1 -1 -1 -1 -0 -0 -1 -1 -1 -1 -0 0 1 1
-3 -2 -1 -0 0 0 1 1 1 1 2 2 1 1 0 0 -3 -2 -3 -3 -4 -3 -4 -1 -1 -0 -0 -1 -1 -1 -2 -2 -4 -3 -2 -2 -2 -1 -1 -1 -1 -2 -1 -0 0 0 1
-3 -3 -2 -1 -0 -0 -0 0 0 0 1 1 0 -1 -2 -3 -3 -3 -3 -4 -4 -4 -4 -1 -2 -2 -2 -1 -2 -1 -2 -5 -4 -4 -4 -3 -2 -1 -2 -1 -1 -1 -0 0 0 0 -0
-4 -3 -3 -2 -1 -1 -1 -1 -1 -1 -1 -2 -3 -3 -3 -4 -3 -3 -3 -4 -4 -5 -6 -2 -3 -2 -1 -1 -3 -2 -3 -5 -4 -4 -2 -2 -1 -1 -1 -1 -1 -0 -0 -0 -0 -0 -0
-5 -4 -4 -3 -2 -2 -2 -2 -1 -1 -3 -3 -3 -3 -3 -4 -4 -4 -4 -4 -5 -7 -4 -3 -3 -2 -2 -2 -3 -3 -3 -4 -3 -3 -3 -2 -2 -1 -1 -1 -1 -1 -1 0 -0 -1 1
-6 -5 -5 -4 -4 -4 -5 -6 -6 -6 -4 -3 -4 -5 -5 -5 -5 -5 -5 -5 -7 -6 -4 -3 -3 -3 -3 -2 -3 -2 -2 -3 -3 -2 -2 -2 -2 -2 -1 -1 -0 -0 -0 1 -0 0 1
-8 -6 -6 -5 -5 -6 -7 -7 -7 -6 -5 -5 -5 -5 -5 -5 -5 -6 -6 -7 -6 -7 -6 -5 -4 -5 -3 -3 -3 -3 -3 -3 -3 -2 -2 -2 -2 -2 -2 -1 -1 -1 -1 -1 -1 -1 -0
-8 -8 -7 -7 -6 -6 -7 -7 -7 -6 -6 -6 -6 -6 -6 -6 -7 -8 -8 -8 -7 -7 -6 -5 -5 -5 -4 -3 -3 -3 -3 -4 -3 -2 -2 -2 -3 -3 -2 -2 -1 -1 -2 -2 -2 -1 -0
-9 -9 -9 -8 -7 -7 -7 -7 -7 -7 -6 -7 -7 -7 -8 -8 -8 -9 -9 -9 -8 -8 -8 -7 -6 -7 -7 -4 -4 -6 -6 -5 -4 -4 -2 -2 -1 -3 -3 -3 -2 -2 -2 -2 -2 -3 -1
-9 -9 -9 -9 -8 -8 -8 -8 -8 -7 -7 -8 -8 -8 -8 -9 -8 -9 -9 -9 -8 -8 -8 -7 -7 -7 -7 -5 -4 -5 -7 -6 -5 -4 -3 -3 -2 -3 -4 -3 -3 -3 -3 -3 -3 -4 -5
-10 -10 -9 -9 -9 -8 -8 -8 -8 -8 -8 -8 -9 -9 -10 -9 -9 -9 -9 -9 -8 -8 -8 -7 -8 -8 -7 -6 -4 -5 -5 -5 -4 -4 -4 -4 -4 -5 -5 -6 -6 -6 -6 -5 -5 -6 -6
-10 -9 -9 -9 -9 -9 -8 -8 -8 -8 -8 -9 -10 -10 -11 -11 -10 -9 -9 -9 -9 -8 -8 -8 -7 -7 -8 -6 -5 -5 -5 -6 -5 -5 -5 -5 -5 -4 -4 -5 -6 -6 -6 -6 -7 -7 -6
-9 -8 -9 -9 -9 -9 -9 -9 -9 -9 -9 -10 -11 -10 -9 -10 -9 -9 -9 -9 -8 -8 -8 -7 -7 -7 -7 -6 -5 -5 -5 -5 -6 -6 -6 -6 -6 -6 -5 -6 -6 -6 -6 -6 -7 -7 -8
-10 -10 -9 -9 -10 -10 -10 -10 -10 -10 -10 -11 -10 -9 -9 -8 -9 -8 -8 -8 -8 -8 -8 -7 -7 -7 -6 -6 -5 -5 -5 -6 -6 -7 -7 -7 -8 -8 -7 -7 -8 -7 -6 -6 -6 -7 -7
-9 -9 -9 -9 -9 -10 -10 -10 -11 -11 -11 -10 -10 -9 -8 -8 -8 -8 -8 -7 -8 -8 -8 -8 -7 -7 -7 -7 -7 -6 -7 -7 -7 -7 -7 -8 -8 -8 -9 -9 -8 -8 -6 -6 -7 -8 -8
-10 -10 -10 -9 -10 -11 -10 -11 -11 -10 -10 -10 -9 -9 -9 -8 -8 -8 -8 -8 -7 -7 -7 -7 -8 -8 -7 -7 -7 -7 -7 -7 -7 -7 -8 -8 -8 -8 -9 -9 -8 -8 -8 -8 -8 -8 -9
-10 -10 -10 -10 -11 -11 -11 -11 -11 -10 -9 -9 -9 -9 -9 -8 -8 -8 -8 -7 -7 -7 -7 -8 -8 -8 -7 -7 -8 -8 -8 -8 -8 -8 -8 -8 -9 -9 -10 -9 -8 -9 -9 -9 -8 -9 -9
-10 -11 -11 -11 -11 -12 -11 -12 -11 -11 -11 -10 -10 -9 -9 -8 -8 -8 -8 -8 -8 -8 -8 -8 -8 -8 -8 -8 -8 -8 -8 -8 -9 -9 -8 -8 -9 -9 -10 -9 -8 -8 -9 -9 -8 -9 -9
-10 -11 -11 -11 -12 -11 -11 -11 -10 -10 -11 -10 -9 -9 -9 -8 -8 -8 -8 -8 -8 -8 -8 -8 -8 -8 -8 -8 -8 -8 -9 -9 -8 -9 -9 -9 -10 -10 -10 -9 -9 -9 -9 -8 -9 -10 -9
-12 -12 -12 -12 -11 -12 -11 -11 -10 -10 -10 -10 -9 -9 -9 -8 -9 -9 -9 -9 -8 -8 -8 -8 -8 -8 -8 -7 -7 -8 -9 -9 -9 -9 -9 -9 -9 -10 -10 -10 -9 -9 -9 -9 -10 -10 -10
-12 -12 -12 -11 -12 -12 -11 -11 -10 -10 -9 -9 -9 -9 -9 -9 -9 -9 -9 -9 -9 -8 -8 -8 -8 -8 -8 -7 -7 -8 -8 -9 -9 -9 -9 -9 -9 -9 -9 -9 -9 -10 -9 -9 -9 -10 -10

GFSGBSN_700_temp_102.txt.gz
Temp
3 4 4 4 4 5 5 5 5 5 5 5 5 5 5 5 5 4 4 3 3 2 2 3 3 3 3 3 3 3 3 4 4 4 4 4 4 4 4 3 3 4 5 4 5 5 5
3 3 3 4 4 5 4 5 5 5 5 5 5 5 5 4 4 4 4 4 3 2 1 3 1 1 2 4 3 3 3 3 3 3 3 3 3 3 1 2 3 2 3 3 3 4 4
3 3 3 3 3 4 3 4 5 5 5 4 4 5 5 4 3 3 3 3 3 2 2 2 2 1 2 3 1 2 3 3 2 2 2 2 2 2 1 0 2 3 2 2 2 3 2
2 2 2 2 2 3 3 3 4 4 4 4 4 4 4 3 3 3 3 3 2 2 1 1 1 1 2 2 1 2 2 2 2 2 2 2 2 1 -1 0 1 2 1 3 4 2 2
1 1 1 1 2 2 2 2 2 3 3 3 3 3 3 3 2 2 3 2 2 1 0 0 -0 -0 1 2 2 2 2 3 2 2 0 0 0 1 -1 -1 1 1 3 4 4 2 2
0 1 1 1 1 1 1 1 2 2 2 2 3 3 3 3 2 2 2 2 1 0 -0 -0 0 0 2 1 1 1 1 2 2 2 -1 -2 -1 -2 -1 -0 2 3 3 3 3 3 2
-1 -0 0 0 1 1 1 1 1 2 2 2 3 3 3 2 2 2 1 0 -1 -1 1 2 0 1 0 -0 -1 -0 -1 0 0 -0 -0 -2 -3 -1 0 -0 1 1 2 3 3 2 1
-2 -1 -1 -0 -0 0 0 1 1 1 2 2 2 3 2 2 2 2 1 -0 -1 -1 -1 0 -0 1 0 -2 -2 -2 -1 -1 -0 -1 -3 -4 -4 -1 -1 -1 -1 -0 1 2 2 1 1
-2 -2 -1 -1 -1 -1 -0 0 1 1 1 2 2 2 2 2 1 1 0 -1 -1 -3 -4 0 -0 0 -2 -2 -0 -2 -3 -2 -1 -3 -4 -5 -3 -2 -2 -2 -2 -1 0 1 1 2 1
-3 -3 -2 -2 -2 -1 -1 -0 0 1 1 1 2 2 2 2 0 1 -1 -3 -2 -3 -4 -1 -0 -0 -1 -1 -2 -1 -2 -3 -3 -2 -4 -5 -2 -2 -3 -2 -1 -0 -0 -0 0 1 3
-4 -4 -3 -3 -2 -2 -2 -1 -0 0 0 1 1 1 1 1 -0 -1 -2 -3 -3 -3 -3 -2 -2 -1 -1 -2 -2 -2 -2 -3 -3 -4 -4 -2 -4 -5 -5 -2 -1 -1 -0 -1 0 1 2
-5 -5 -4 -4 -3 -3 -2 -1 -1 -1 -0 -0 0 0 -0 -2 -2 -3 -3 -3 -4 -4 -3 -3 -2 -2 -2 -2 -2 -4 -2 -4 -4 -4 -5 -4 -4 -4 -3 -3 -3 -2 -1 -1 -0 1 2
-6 -6 -5 -5 -4 -3 -3 -2 -2 -1 -1 -1 -1 -3 -3 -3 -3 -4 -3 -3 -5 -4 -4 -2 -3 -4 -3 -3 -2 -4 -3 -5 -4 -5 -5 -4 -4 -3 -3 -2 -2 -3 -1 0 0 1 3
-9 -9 -8 -6 -5 -5 -4 -3 -2 -2 -1 -1 -3 -4 -3 -3 -4 -4 -4 -4 -5 -5 -4 -4 -3 -3 -4 -3 -3 -3 -4 -5 -5 -4 -3 -3 -3 -2 -2 -2 -1 -2 -1 0 1 3 5
-9 -9 -8 -9 -6 -6 -5 -4 -4 -3 -4 -5 -5 -4 -5 -5 -5 -5 -5 -6 -5 -6 -5 -5 -5 -4 -3 -3 -2 -3 -3 -3 -3 -3 -2 -2 -2 -2 -2 -1 -1 -1 -0 1 1 1 3
-10 -9 -8 -9 -9 -7 -6 -5 -6 -6 -6 -6 -6 -5 -5 -5 -5 -6 -6 -6 -6 -7 -6 -6 -5 -5 -3 -2 -2 -2 -2 -4 -5 -4 -3 -2 -2 -3 -3 -2 -1 -1 -0 -1 -0 1 2
-10 -10 -9 -9 -9 -8 -8 -7 -7 -7 -7 -6 -6 -6 -6 -6 -7 -8 -8 -7 -8 -7 -7 -7 -6 -6 -5 -5 -3 -5 -4 -5 -4 -3 -4 -3 -3 -3 -2 -2 -2 -2 -1 -1 -1 -0 2
-10 -9 -8 -9 -9 -9 -8 -8 -8 -7 -7 -7 -7 -7 -7 -8 -8 -9 -9 -8 -8 -8 -7 -7 -7 -6 -6 -6 -6 -6 -6 -6 -4 -4 -5 -4 -2 -2 -3 -2 -2 -2 -3 -2 -1 0 -1
-10 -10 -9 -9 -9 -9 -9 -8 -8 -8 -8 -8 -8 -8 -9 -9 -9 -9 -9 -9 -8 -8 -7 -7 -7 -7 -8 -7 -6 -6 -6 -6 -5 -6 -6 -4 -4 -3 -3 -4 -3 -4 -3 -3 -3 -3 -2
-10 -10 -10 -9 -9 -9 -9 -9 -9 -9 -9 -9 -9 -9 -10 -10 -9 -9 -9 -9 -9 -8 -8 -7 -7 -7 -8 -7 -7 -7 -6 -6 -6 -5 -5 -4 -3 -3 -1 -3 -4 -5 -6 -6 -5 -5 -3
-11 -10 -10 -9 -9 -9 -9 -9 -9 -9 -9 -9 -9 -10 -8 -9 -9 -9 -9 -8 -8 -8 -8 -8 -8 -8 -7 -7 -6 -7 -6 -6 -6 -6 -5 -5 -5 -4 -5 -5 -5 -6 -6 -6 -6 -5 -5
-11 -11 -10 -10 -10 -10 -9 -9 -9 -9 -10 -10 -10 -10 -9 -9 -10 -10 -9 -8 -8 -8 -8 -8 -8 -8 -8 -7 -8 -7 -6 -7 -7 -6 -6 -6 -6 -5 -6 -7 -7 -6 -6 -6 -6 -6 -6
-11 -10 -10 -9 -10 -10 -9 -9 -10 -10 -10 -10 -10 -9 -9 -9 -10 -10 -9 -8 -8 -8 -8 -8 -8 -7 -8 -7 -7 -6 -6 -6 -6 -6 -6 -6 -6 -6 -5 -7 -7 -6 -6 -6 -6 -6 -6
-10 -10 -9 -10 -10 -10 -10 -10 -10 -10 -10 -10 -10 -9 -9 -9 -9 -9 -9 -8 -8 -8 -8 -7 -8 -8 -7 -7 -7 -7 -7 -7 -7 -7 -7 -7 -7 -8 -6 -8 -6 -8 -8 -8 -7 -8 -7
-10 -10 -10 -10 -10 -10 -10 -10 -10 -10 -10 -10 -10 -9 -9 -8 -9 -9 -8 -8 -8 -8 -8 -8 -8 -8 -8 -8 -8 -8 -9 -8 -8 -8 -8 -8 -8 -8 -7 -6 -6 -9 -8 -8 -8 -9 -8
-10 -10 -10 -11 -11 -11 -11 -11 -11 -11 -10 -9 -10 -10 -9 -9 -9 -9 -9 -8 -8 -8 -8 -8 -8 -8 -8 -8 -8 -7 -7 -7 -8 -9 -8 -8 -9 -8 -8 -6 -5 -9 -9 -9 -9 -9 -9
-11 -11 -11 -11 -11 -11 -11 -11 -12 -12 -11 -10 -9 -9 -9 -9 -8 -8 -8 -8 -8 -8 -9 -8 -8 -8 -8 -8 -8 -8 -8 -8 -7 -8 -9 -9 -10 -8 -8 -7 -8 -8 -9 -9 -9 -9 -9
-11 -11 -11 -11 -11 -12 -11 -11 -12 -11 -11 -10 -10 -9 -9 -9 -9 -9 -8 -8 -8 -8 -8 -8 -9 -8 -8 -8 -8 -8 -8 -8 -9 -9 -8 -8 -8 -8 -8 -8 -7 -9 -9 -9 -9 -9 -10
-11 -12 -11 -11 -12 -12 -12 -11 -11 -11 -11 -10 -10 -9 -9 -9 -9 -9 -9 -9 -9 -8 -8 -8 -8 -8 -8 -7 -7 -8 -9 -8 -9 -8 -9 -9 -8 -9 -9 -9 -9 -9 -9 -9 -9 -10 -10

GFSGBSN_700_temp_108.txt.gz
Temp
2 2 2 3 3 4 4 4 4 4 5 5 5 5 5 5 5 5 5 5 5 5 5 5 5 5 5 5 7 5 5 5 5 4 4 4 4 4 3 3 4 5 6 6 6 6 6
2 2 3 3 3 4 4 4 4 4 4 5 5 5 5 5 4 5 4 4 4 4 5 5 5 4 5 6 6 6 5 5 5 4 4 3 3 3 2 3 3 4 4 4 5 6 6
2 2 3 3 3 3 3 4 4 4 4 4 4 4 4 4 4 4 4 4 4 4 4 4 4 4 5 7 4 4 4 4 4 5 3 2 2 1 2 2 3 3 3 4 4 4 5
2 2 2 2 2 2 3 3 3 3 3 4 4 4 4 3 3 3 3 3 3 4 4 3 3 4 6 5 5 5 5 5 4 4 3 2 1 1 1 1 1 2 2 3 4 5 6
1 1 1 1 1 2 2 2 2 2 2 2 3 3 3 3 3 3 2 3 3 3 3 3 3 3 4 5 4 4 4 4 3 2 2 2 1 2 1 0 1 2 2 3 4 5 6
-0 0 0 0 1 1 1 1 2 2 2 2 2 2 3 2 2 2 2 2 2 2 2 2 3 3 4 3 2 2 1 2 2 1 1 1 1 1 0 0 1 3 4 5 5 5 6
-1 -1 -1 -0 -0 0 0 1 1 1 1 1 1 1 2 2 2 2 2 1 1 2 2 3 2 3 2 2 2 0 -1 -1 -0 0 -1 -0 -1 -0 1 2 2 3 3 3 3 4 4
-1 -1 -1 -1 -1 -1 -0 -0 0 0 1 1 1 1 1 1 1 1 1 1 1 1 2 3 3 3 3 3 2 2 0 -1 -1 -1 -1 -0 0 1 1 1 1 1 1 1 1 2 3
-2 -2 -2 -1 -1 -1 -1 -1 -0 -0 -0 0 0 0 0 1 1 1 1 1 1 0 0 3 3 3 3 1 3 3 -0 -1 -1 -1 -0 0 1 2 1 0 0 1 1 0 0 0 0
-3 -3 -2 -2 -2 -1 -2 -1 -1 -1 -1 -1 -0 -0 -0 0 0 1 1 1 1 -2 -3 2 1 2 1 0 0 3 0 -1 -1 -0 -0 -0 1 1 1 1 0 -0 -0 -0 -1 -2 -2
-3 -3 -3 -3 -3 -2 -2 -2 -2 -2 -1 -1 -1 -1 -1 -1 0 1 1 0 -2 -3 -2 3 2 1 -0 0 2 1 -1 -1 -0 -0 -0 -0 0 -0 -0 1 1 -1 -2 -3 -3 -3 -3
-4 -4 -4 -3 -3 -3 -3 -2 -2 -2 -2 -2 -1 -1 -1 -0 -0 -0 -0 -2 -4 -4 -2 1 1 1 0 -0 -0 0 -1 -1 -1 -1 -1 -2 -1 -2 -2 -2 -2 -3 -3 -3 -4 -3 -3
-5 -5 -4 -4 -4 -4 -3 -3 -3 -3 -2 -2 -2 -2 -1 -1 -0 -1 -2 -3 -3 -4 -0 1 2 0 -1 -0 -1 -1 -0 -1 -1 -2 -2 -1 -2 -2 -2 -3 -2 -4 -4 -3 -3 -2 -0
-6 -6 -6 -5 -5 -5 -4 -4 -3 -3 -3 -3 -2 -2 -1 -2 -2 -4 -3 -3 -4 -1 -2 1 1 1 0 0 0 -0 -0 -0 -1 -2 -1 -1 -0 -2 -3 -3 -2 -3 -3 -2 -2 -1 1
-8 -8 -9 -8 -8 -7 -6 -6 -6 -4 -4 -4 -3 -3 -3 -3 -4 -4 -3 -4 -4 -2 0 0 0 0 1 1 0 0 -0 0 0 -2 -3 -1 0 -1 -2 -3 -3 -3 -4 -1 -2 -3 -2
-10 -10 -9 -9 -9 -9 -8 -8 -8 -7 -6 -5 -4 -4 -5 -5 -3 -5 -4 -4 -4 -3 -2 -2 -2 -2 -1 0 0 -2 0 0 0 -2 -2 -3 -1 -1 -2 -3 -2 -2 -2 -3 -4 -2 -1
-11 -10 -10 -10 -9 -9 -9 -8 -8 -8 -8 -7 -7 -6 -5 -5 -4 -5 -5 -4 -4 -3 -3 -3 -3 -2 -3 -2 -1 -3 -3 -1 -0 -1 -2 -3 -2 -2 -3 -2 -0 -1 -1 -3 -3 -1 -1
-11 -11 -10 -10 -10 -9 -9 -9 -8 -8 -9 -7 -7 -7 -6 -6 -6 -6 -4 -5 -4 -4 -4 -4 -3 -3 -2 -2 -2 -1 -3 -3 -3 -3 -3 -3 -2 -2 -1 -1 -1 -1 -1 -3 -3 -2 -3
-11 -11 -11 -11 -11 -10 -9 -9 -8 -8 -8 -8 -9 -7 -7 -7 -6 -5 -5 -5 -5 -5 -4 -4 -4 -4 -4 -4 -3 -3 -3 -3 -3 -3 -3 -3 -3 -2 -3 -3 -2 -2 -2 -1 -2 -2 -1
-12 -11 -11 -11 -10 -10 -9 -9 -9 -8 -9 -9 -8 -8 -8 -8 -7 -6 -7 -6 -6 -6 -5 -5 -5 -5 -4 -4 -4 -4 -4 -4 -4 -4 -3 -3 -3 -2 -2 -3 -2 -1 -1 -1 -1 -3 -1
-12 -12 -12 -12 -11 -10 -10 -10 -9 -9 -9 -9 -8 -8 -7 -7 -6 -7 -7 -6 -6 -6 -5 -5 -5 -5 -5 -5 -4 -5 -5 -5 -5 -5 -4 -4 -4 -3 -3 -2 -2 -2 -1 -1 -2 -2 -2
-12 -12 -12 -12 -11 -11 -11 -11 -10 -9 -9 -9 -8 -8 -7 -7 -7 -7 -7 -6 -6 -6 -6 -5 -6 -5 -6 -5 -5 -5 -5 -6 -6 -6 -6 -6 -5 -5 -4 -3 -3 -3 -2 -2 -2 -2 -2
-12 -12 -12 -11 -11 -11 -11 -10 -10 -9 -9 -9 -9 -9 -8 -7 -7 -8 -7 -7 -6 -6 -6 -5 -5 -6 -6 -6 -6 -6 -6 -6 -6 -6 -7 -6 -6 -5 -4 -3 -4 -3 -3 -3 -3 -2 -3
-12 -12 -12 -12 -12 -11 -10 -10 -10 -9 -9 -9 -9 -9 -8 -8 -8 -7 -7 -7 -7 -6 -6 -6 -6 -6 -6 -6 -7 -7 -6 -7 -7 -6 -6 -6 -5 -5 -3 -4 -4 -5 -5 -5 -5 -6 -5
-12 -12 -12 -12 -11 -11 -10 -9 -9 -9 -9 -9 -9 -9 -9 -8 -7 -7 -7 -7 -7 -6 -6 -7 -7 -6 -7 -7 -8 -8 -7 -7 -7 -7 -6 -6 -6 -5 -4 -4 -4 -6 -7 -6 -6 -7 -6
-11 -12 -11 -11 -10 -10 -10 -9 -9 -10 -10 -10 -10 -9 -9 -8 -7 -7 -7 -7 -7 -7 -7 -8 -7 -8 -7 -7 -7 -7 -6 -6 -6 -7 -6 -6 -6 -5 -5 -4 -3 -7 -8 -8 -6 -8 -7
-11 -11 -11 -10 -10 -9 -10 -9 -10 -10 -10 -10 -9 -9 -9 -8 -8 -7 -8 -7 -7 -7 -8 -7 -7 -7 -8 -8 -7 -6 -6 -4 -5 -6 -6 -7 -7 -6 -5 -4 -7 -7 -9 -7 -7 -8 -8
-11 -10 -10 -10 -9 -9 -9 -9 -9 -10 -10 -10 -10 -9 -9 -8 -8 -7 -8 -7 -7 -7 -7 -7 -8 -8 -8 -8 -7 -6 -6 -5 -6 -6 -7 -6 -6 -6 -5 -4 -5 -7 -7 -8 -7 -7 -8
-10 -10 -10 -9 -9 -9 -10 -10 -10 -10 -10 -10 -10 -10 -9 -9 -8 -8 -8 -8 -7 -8 -7 -7 -8 -8 -8 -7 -6 -6 -6 -6 -6 -6 -6 -7 -6 -6 -6 -6 -7 -7 -7 -7 -7 -8 -8

GFSGBSN_700_temp_111.txt.gz
Temp
2 1 2 2 2 2 2 2 3 3 4 4 4 4 5 5 5 5 5 5 5 5 5 5 5 6 6 7 8 5 6 6 6 6 5 5 5 5 4 3 3 4 4 5 5 5 6
2 2 2 2 2 2 2 3 3 3 4 4 4 4 4 5 5 4 5 5 4 4 5 5 5 5 6 8 7 6 6 7 7 6 6 5 5 4 2 2 2 3 3 4 4 5 6
2 2 2 2 2 2 2 3 3 3 3 3 3 3 3 4 4 4 4 4 4 4 4 4 4 5 6 7 6 5 6 6 6 6 6 5 5 3 2 2 2 2 2 3 3 3 3
1 2 2 2 2 2 2 2 3 3 3 3 3 3 3 3 3 3 3 3 3 4 4 4 4 5 7 6 6 5 6 5 5 5 5 4 3 3 2 2 2 1 2 2 5 4 4
0 1 1 1 1 2 1 1 2 2 2 2 2 2 2 2 3 3 3 3 3 2 3 3 4 4 6 5 5 5 4 4 4 4 4 4 3 2 1 1 1 1 1 2 4 3 4
-0 -0 -0 0 0 1 1 1 1 1 1 1 1 1 1 2 2 2 2 2 2 2 3 3 3 3 4 3 3 4 3 2 3 3 3 3 2 1 0 1 0 2 1 1 2 2 3
-1 -1 -1 -1 -1 -0 -0 0 0 0 0 0 0 0 1 1 2 2 1 2 1 2 3 3 3 3 3 2 2 0 0 2 2 2 2 2 0 -1 2 1 0 0 1 1 2 2 1
-1 -1 -1 -1 -1 -1 -1 -1 -0 -0 -0 -0 -0 -0 0 0 1 1 1 1 1 1 2 3 3 4 4 3 0 -0 1 -0 -1 -1 -0 -0 1 1 1 0 0 1 1 1 1 1 1
-2 -2 -2 -2 -1 -1 -1 -1 -1 -0 -1 -0 -0 -0 -0 -0 0 1 1 1 1 1 1 3 3 4 3 2 3 3 1 1 -0 -1 -1 -1 1 0 0 1 1 1 1 0 0 0 0
-3 -2 -2 -2 -2 -2 -2 -1 -1 -1 -1 -1 -1 -1 -1 -1 -0 1 1 1 0 -0 -1 3 3 3 3 3 3 3 3 1 -0 -1 -1 -1 -1 -0 -0 0 1 1 1 0 -0 -1 -2
-3 -3 -3 -3 -3 -2 -2 -2 -2 -2 -2 -2 -2 -2 -1 -1 -1 -0 0 -1 -2 -3 -5 3 1 1 0 2 2 1 2 -0 1 1 -1 0 -0 -0 0 -0 -0 -0 -0 -1 -1 -1 -3
-4 -4 -4 -4 -3 -3 -3 -3 -3 -2 -2 -2 -2 -2 -2 -2 -1 -1 -1 -2 -5 -4 -4 2 2 1 1 0 1 0 0 -1 -0 -1 -1 -1 -1 -0 -0 -0 -1 -1 -1 -1 -2 -3 -3
-5 -5 -4 -4 -4 -4 -3 -3 -3 -3 -2 -2 -2 -2 -2 -2 -1 -2 -3 -4 -4 -4 -1 1 1 1 1 0 -0 -0 -0 -1 -1 -1 -1 -0 -1 -1 -1 -1 -1 -2 -2 -3 -4 -3 -3
-5 -5 -5 -5 -5 -4 -4 -4 -4 -3 -3 -3 -3 -3 -2 -2 -2 -3 -4 -5 -5 -2 -1 1 1 1 1 0 -0 -0 -1 -0 -0 -1 -1 -1 -1 0 -0 -1 -1 -2 -3 -3 -3 -3 -2
-7 -6 -6 -6 -6 -6 -6 -5 -5 -5 -5 -4 -4 -3 -3 -3 -3 -4 -5 -5 -4 -2 -1 -0 0 0 1 1 1 0 0 -0 -1 -1 -1 -1 -1 -0 -1 -1 -2 -3 -4 -3 -4 -3 -3
-9 -8 -8 -8 -8 -9 -8 -8 -7 -7 -7 -6 -5 -5 -4 -4 -5 -4 -6 -5 -3 -2 -2 -1 -1 -0 0 0 1 1 0 -1 -1 -0 -1 -1 -1 -1 -1 -2 -3 -3 -2 -4 -4 -3 -2
-11 -11 -10 -9 -10 -10 -9 -9 -9 -9 -8 -8 -8 -7 -5 -7 -5 -6 -5 -5 -4 -3 -3 -3 -2 -2 -1 -1 -1 -1 -2 -1 -1 -1 -2 -3 -2 -2 -2 -2 -2 -3 -3 -3 -3 -3 -3
-12 -12 -11 -11 -11 -10 -10 -9 -9 -9 -9 -8 -9 -8 -7 -7 -7 -6 -5 -5 -5 -4 -4 -3 -3 -3 -2 -2 -2 -2 -2 -2 -2 -0 -3 -3 -3 -3 -2 -2 -2 -3 -3 -2 -3 -3 -4
-12 -12 -12 -12 -11 -11 -10 -10 -10 -9 -9 -8 -9 -8 -7 -8 -7 -7 -6 -6 -6 -4 -4 -4 -4 -4 -3 -3 -3 -3 -2 -3 -3 -2 -3 -3 -4 -4 -2 -2 -2 -2 -1 -2 -2 -3 -2
-12 -12 -12 -12 -12 -11 -11 -10 -10 -9 -9 -8 -9 -8 -8 -8 -7 -7 -6 -6 -6 -5 -5 -5 -4 -5 -4 -4 -3 -4 -3 -3 -3 -3 -4 -4 -4 -2 -2 -2 -3 -2 -2 -2 -2 -2 -2
-12 -12 -12 -12 -12 -11 -11 -10 -10 -10 -10 -9 -9 -8 -8 -8 -7 -7 -8 -7 -6 -6 -5 -5 -5 -5 -5 -4 -4 -4 -4 -4 -4 -4 -4 -5 -4 -4 -3 -2 -3 -3 -2 -1 -1 -1 -2
-13 -13 -12 -12 -12 -12 -11 -11 -10 -10 -10 -10 -9 -9 -9 -8 -7 -7 -7 -7 -6 -5 -6 -6 -6 -5 -5 -5 -5 -4 -4 -5 -4 -5 -6 -5 -5 -5 -4 -3 -3 -3 -3 -2 -2 -2 -2
-13 -13 -12 -12 -12 -12 -12 -11 -11 -11 -11 -10 -9 -9 -9 -8 -8 -8 -6 -6 -6 -6 -6 -5 -5 -5 -5 -5 -5 -5 -5 -5 -6 -5 -6 -6 -6 -6 -6 -4 -4 -4 -3 -3 -3 -3 -3
-13 -13 -12 -12 -12 -12 -12 -12 -11 -11 -11 -9 -9 -9 -9 -8 -8 -7 -6 -6 -7 -6 -6 -6 -6 -6 -6 -5 -6 -6 -6 -6 -7 -6 -6 -6 -7 -6 -4 -4 -5 -4 -4 -4 -4 -4 -5
-12 -12 -12 -12 -12 -12 -12 -11 -11 -11 -9 -10 -9 -9 -9 -9 -8 -8 -7 -7 -7 -7 -6 -6 -6 -6 -6 -6 -6 -8 -7 -7 -7 -7 -7 -7 -6 -5 -5 -4 -6 -6 -5 -5 -5 -4 -5
-12 -12 -12 -12 -12 -12 -11 -11 -11 -10 -10 -9 -9 -10 -9 -9 -8 -8 -7 -7 -7 -7 -7 -6 -6 -7 -7 -7 -7 -8 -8 -7 -7 -7 -7 -6 -6 -5 -5 -5 -7 -7 -6 -6 -6 -6 -5
-12 -12 -12 -12 -12 -12 -11 -11 -11 -10 -10 -9 -10 -10 -9 -9 -8 -8 -7 -7 -7 -7 -7 -8 -7 -7 -8 -7 -7 -7 -7 -6 -7 -7 -7 -6 -6 -6 -6 -5 -7 -7 -7 -7 -7 -6 -6
-12 -12 -12 -11 -11 -11 -11 -11 -10 -9 -9 -10 -10 -9 -9 -9 -8 -7 -7 -7 -7 -7 -8 -8 -8 -8 -7 -7 -7 -7 -7 -6 -6 -6 -6 -7 -7 -6 -6 -5 -7 -7 -7 -7 -6 -6 -7
-12 -11 -11 -11 -11 -11 -11 -10 -10 -10 -10 -10 -10 -10 -9 -9 -9 -8 -7 -7 -7 -8 -7 -7 -7 -7 -7 -7 -7 -7 -7 -6 -6 -7 -6 -7 -6 -6 -6 -5 -6 -6 -7 -6 -6 -7 -7

GFSGBSN_700_temp_114.txt.gz
Temp
2 2 2 2 2 2 2 2 2 2 2 2 3 3 4 4 4 4 5 5 5 5 6 6 6 6 6 7 7 7 7 7 7 7 6 6 6 5 5 6 6 6 6 6 5 5 5
1 2 2 2 2 2 2 2 2 2 2 2 3 3 3 4 4 4 4 5 5 5 5 5 6 6 6 8 6 6 6 7 7 7 6 6 6 4 5 4 4 5 5 5 5 4 5
1 1 2 2 2 2 2 2 2 2 2 2 3 3 3 3 4 4 4 4 5 4 4 5 5 5 7 7 6 6 6 7 6 7 6 5 5 4 4 4 4 4 5 4 4 4 3
1 1 1 1 2 1 1 1 1 2 2 2 2 2 3 3 3 3 3 4 4 3 4 4 5 5 7 6 7 7 7 6 5 6 6 5 4 3 3 2 4 3 3 4 3 3 3
0 0 1 1 1 1 1 1 1 1 1 1 1 1 2 2 2 3 3 3 3 3 4 4 4 3 6 6 6 6 5 4 5 5 5 5 4 1 1 2 1 2 3 4 1 2 2
-1 -0 -0 -0 -0 0 0 0 0 0 0 0 1 1 1 1 2 2 2 2 3 3 3 4 3 4 5 4 5 5 5 4 4 3 3 3 3 1 2 2 2 2 1 1 1 1 1
-1 -1 -1 -1 -0 -1 -1 -1 -0 -1 -0 -0 -0 -0 0 1 1 2 1 2 2 2 3 4 3 3 3 3 3 2 3 4 4 3 3 2 0 1 4 2 1 0 0 1 1 0 1
-2 -2 -2 -1 -1 -1 -1 -1 -1 -1 -1 -1 -1 -1 -0 0 1 1 1 1 1 1 3 4 3 4 4 2 1 1 2 3 2 2 1 1 1 2 1 0 -0 -0 -0 -0 1 1 0
-3 -3 -2 -2 -2 -2 -2 -2 -2 -1 -1 -1 -1 -1 -1 -1 -0 1 1 0 0 1 1 4 4 5 5 3 3 2 2 2 1 -0 0 0 1 0 -1 -1 -1 -1 -0 0 0 0 0
-4 -3 -3 -3 -3 -3 -2 -2 -2 -2 -2 -2 -2 -2 -1 -1 -0 0 0 -1 -1 -0 1 3 4 4 4 3 4 3 2 1 -0 0 -0 -2 -1 -1 -0 -1 -0 -0 -0 -0 0 -0 -1
-4 -4 -3 -3 -3 -3 -3 -2 -2 -2 -2 -2 -2 -2 -2 -2 -1 -1 -1 -1 -1 -1 -4 2 1 1 2 3 3 3 3 0 1 1 -1 0 -1 -1 -1 -1 -1 -0 -0 -0 -1 -1 -1
-5 -4 -4 -4 -4 -3 -3 -3 -3 -3 -2 -3 -3 -3 -2 -2 -2 -2 -2 -2 -3 -2 -5 2 1 1 1 2 1 2 1 1 0 -0 -1 -1 -1 -1 -1 -1 -1 -0 -1 -1 -1 -2 -4
-6 -5 -5 -4 -4 -4 -4 -3 -3 -3 -3 -3 -3 -3 -3 -2 -2 -2 -3 -4 -4 -5 -0 1 1 1 1 1 0 -0 0 -0 -1 -2 -2 -0 -0 -1 -1 -1 -1 -1 -2 -3 -4 -4 -4
-7 -6 -6 -5 -5 -4 -4 -4 -4 -4 -3 -3 -3 -3 -3 -3 -3 -3 -5 -6 -5 -1 -0 1 1 0 1 0 -0 -0 -1 -1 -1 -1 -1 -1 -1 -0 -0 -0 -1 -1 -2 -3 -4 -4 -4
-10 -9 -7 -6 -6 -5 -5 -5 -5 -5 -5 -4 -4 -4 -4 -3 -3 -4 -6 -5 -4 -2 -1 -1 1 0 -0 -0 0 0 -0 0 0 -1 -2 -1 -1 -1 -0 -1 -1 -3 -3 -2 -4 -3 -4
-10 -10 -9 -7 -7 -7 -6 -6 -6 -6 -6 -6 -5 -5 -4 -4 -4 -5 -6 -5 -3 -2 -2 -2 -3 -1 -0 0 -0 -0 -0 -1 -1 -0 -1 -1 -1 -1 -1 -1 -2 -2 -3 -4 -4 -4 -3
-11 -11 -11 -9 -9 -8 -8 -8 -8 -8 -8 -8 -7 -6 -4 -4 -6 -6 -5 -5 -4 -3 -4 -3 -2 -3 -2 -1 -0 -0 -0 -1 -1 -1 -1 -2 -2 -2 -2 -2 -2 -2 -3 -3 -3 -3 -4
-11 -11 -12 -11 -10 -11 -10 -10 -10 -9 -9 -9 -9 -9 -7 -7 -6 -6 -6 -5 -4 -5 -4 -4 -4 -3 -3 -2 -2 -1 -1 -1 -1 -1 -2 -1 -3 -3 -2 -2 -2 -2 -2 -3 -3 -4 -4
-11 -12 -12 -12 -12 -11 -11 -10 -10 -10 -10 -9 -9 -8 -8 -8 -8 -7 -7 -6 -6 -5 -5 -4 -4 -3 -3 -3 -3 -3 -2 -2 -2 -2 -2 -2 -3 -4 -4 -3 -2 -2 -3 -2 -3 -3 -4
-12 -12 -12 -12 -12 -12 -11 -11 -10 -10 -10 -10 -9 -8 -9 -8 -8 -7 -7 -6 -6 -6 -6 -5 -5 -4 -4 -4 -3 -3 -3 -3 -3 -3 -3 -3 -3 -4 -3 -3 -2 -2 -2 -2 -2 -4 -3
-12 -12 -12 -12 -12 -12 -12 -12 -11 -11 -10 -10 -10 -9 -9 -8 -8 -7 -7 -7 -6 -6 -6 -6 -5 -5 -4 -5 -4 -5 -5 -4 -4 -4 -4 -4 -4 -4 -4 -3 -3 -2 -2 -2 -3 -3 -3
-13 -12 -12 -12 -12 -12 -12 -12 -11 -11 -11 -11 -10 -10 -9 -8 -8 -8 -8 -7 -7 -7 -7 -6 -5 -5 -5 -5 -4 -4 -5 -5 -4 -4 -4 -5 -4 -4 -4 -5 -4 -3 -3 -3 -3 -3 -3
-13 -13 -12 -12 -12 -13 -13 -12 -12 -11 -11 -11 -10 -10 -9 -9 -8 -9 -7 -7 -7 -7 -7 -6 -5 -6 -5 -5 -5 -5 -5 -4 -5 -4 -5 -5 -5 -5 -5 -5 -5 -5 -3 -3 -3 -3 -3
-13 -13 -13 -13 -13 -13 -13 -13 -12 -12 -11 -11 -10 -10 -9 -9 -9 -8 -8 -7 -7 -6 -7 -6 -6 -6 -6 -6 -6 -5 -5 -5 -5 -5 -6 -5 -5 -6 -6 -6 -6 -5 -4 -3 -3 -3 -3
-13 -13 -13 -13 -13 -13 -13 -13 -12 -12 -11 -11 -11 -10 -10 -9 -9 -9 -9 -8 -7 -7 -8 -7 -6 -6 -6 -6 -6 -6 -6 -6 -6 -7 -6 -6 -6 -7 -7 -6 -6 -6 -6 -5 -4 -5 -4
-13 -13 -13 -13 -13 -13 -12 -12 -12 -12 -11 -11 -10 -10 -10 -10 -9 -8 -8 -8 -7 -8 -8 -7 -6 -6 -6 -6 -6 -7 -8 -7 -7 -7 -7 -7 -7 -7 -6 -5 -7 -6 -5 -5 -5 -5 -5
-12 -12 -12 -12 -12 -12 -12 -12 -12 -12 -11 -11 -11 -9 -9 -9 -9 -8 -8 -8 -8 -7 -7 -7 -7 -6 -6 -6 -7 -7 -7 -6 -7 -7 -7 -8 -8 -7 -6 -5 -6 -6 -5 -6 -6 -5 -5
-12 -12 -12 -12 -12 -12 -12 -12 -11 -11 -11 -11 -10 -10 -10 -9 -9 -9 -8 -8 -7 -7 -7 -7 -7 -8 -8 -7 -7 -6 -6 -7 -7 -6 -7 -7 -7 -6 -6 -6 -7 -6 -6 -6 -5 -6 -6
-12 -12 -12 -12 -12 -12 -12 -12 -11 -11 -11 -11 -10 -10 -10 -10 -9 -9 -8 -7 -7 -7 -7 -7 -7 -7 -8 -7 -7 -6 -6 -7 -7 -7 -6 -7 -6 -6 -6 -6 -6 -6 -6 -6 -6 -6 -6

GFSGBSN_700_temp_117.txt.gz
Temp
2 2 2 2 1 2 1 2 2 2 2 2 3 2 2 3 3 4 4 5 5 5 6 6 6 7 7 8 6 7 7 7 7 7 7 7 7 7 7 7 7 6 6 6 6 7 7
1 1 1 1 2 2 1 1 1 2 2 2 2 2 2 2 3 4 4 4 5 5 5 6 6 6 7 8 6 7 7 7 6 6 6 6 6 6 6 7 6 6 5 6 6 6 6
0 1 1 1 1 1 2 1 1 1 1 2 2 2 2 3 3 3 4 4 4 4 5 5 6 6 7 7 6 6 7 7 6 6 5 5 5 5 5 6 5 6 5 5 5 5 6
-1 0 1 1 1 1 2 1 1 2 2 2 2 2 2 2 3 3 3 3 3 4 4 5 5 6 7 6 6 6 6 6 6 6 6 5 5 5 5 5 4 4 3 3 4 4 4
-2 -1 -1 0 1 1 1 1 1 1 1 1 1 2 2 2 2 2 2 3 3 3 3 4 5 5 6 6 6 5 5 5 5 5 5 4 3 3 4 4 2 3 2 2 2 2 3
-3 -1 -1 -0 -0 -0 0 0 -0 0 0 1 1 1 1 1 1 1 1 2 2 2 3 4 4 5 5 5 5 5 5 5 5 5 4 4 2 2 4 2 1 3 2 0 -0 1 1
-3 -2 -1 -1 -1 -1 -1 -1 -1 -1 -1 -0 -0 0 0 1 1 1 1 1 2 2 3 3 3 4 4 4 4 5 4 4 4 4 4 3 2 3 5 3 2 1 0 -0 -0 1 0
-3 -3 -2 -2 -2 -1 -2 -1 -1 -1 -2 -1 -1 -1 -0 0 0 0 1 1 1 1 2 3 3 4 4 4 3 3 3 3 3 3 2 2 2 2 1 1 -0 0 -0 -0 -1 -0 -1
-3 -3 -3 -3 -3 -2 -2 -2 -2 -2 -2 -2 -1 -1 -1 -1 -0 -0 -0 -0 0 0 1 4 4 4 5 4 4 4 2 2 1 1 2 1 1 1 0 -0 -0 0 -1 -1 -1 -1 -1
-5 -4 -4 -3 -3 -3 -3 -3 -2 -3 -2 -2 -2 -2 -2 -1 -1 -1 -1 -1 -0 -0 -0 3 4 3 4 4 4 4 2 1 -0 2 1 -1 -0 0 -1 -1 -1 -1 -1 -1 -1 -1 -1
-6 -6 -5 -4 -4 -4 -3 -3 -3 -3 -3 -3 -3 -3 -2 -2 -2 -2 -2 -1 -1 -1 -4 2 1 2 3 3 4 3 3 0 1 1 -0 0 -0 -0 0 1 -1 -2 -1 -1 -1 -1 -1
-8 -6 -6 -5 -5 -4 -4 -4 -4 -4 -3 -3 -3 -3 -3 -2 -2 -2 -2 -2 -2 -2 -4 1 0 2 2 3 2 2 2 1 0 -1 -2 -1 -1 -1 -1 -1 -1 -1 -1 -1 -2 -2 -4
-8 -8 -7 -6 -5 -5 -4 -4 -4 -4 -4 -4 -4 -4 -3 -3 -2 -3 -3 -3 -3 -3 -0 1 1 1 1 1 2 2 1 1 0 -1 -1 -0 -1 -1 -2 -2 -2 -2 -2 -3 -4 -5 -4
-8 -8 -8 -8 -7 -6 -5 -5 -5 -4 -4 -4 -4 -4 -3 -3 -4 -4 -5 -6 -5 -1 0 0 1 0 0 0 0 0 0 0 0 0 -0 -1 -1 -0 -0 -0 -1 -2 -2 -2 -3 -4 -4
-9 -8 -9 -9 -9 -8 -7 -6 -6 -5 -5 -5 -5 -4 -4 -4 -4 -5 -6 -6 -4 -2 -1 -0 -0 -1 -1 -1 -1 -0 -0 -0 0 1 -1 -1 -1 -1 -1 -1 -1 -2 -3 -3 -3 -4 -4
-9 -9 -9 -9 -9 -9 -9 -7 -6 -6 -6 -6 -5 -5 -4 -4 -5 -6 -7 -6 -3 -2 -2 -2 -1 -1 -0 -1 -1 -1 -1 -1 -1 -0 -1 -1 -1 -1 -1 -1 -1 -2 -2 -3 -4 -4 -4
-10 -9 -9 -9 -9 -9 -9 -9 -8 -8 -8 -7 -7 -6 -5 -5 -6 -7 -7 -6 -4 -3 -3 -3 -3 -2 -2 -2 -1 -1 -1 -0 -0 -1 -1 -1 -2 -2 -2 -2 -2 -2 -3 -3 -3 -3 -5
-10 -10 -10 -10 -10 -10 -10 -10 -10 -9 -9 -9 -9 -8 -7 -7 -7 -6 -7 -6 -5 -4 -5 -5 -4 -3 -3 -2 -3 -3 -2 -1 -1 -1 -1 -1 -2 -2 -2 -2 -2 -2 -2 -2 -3 -5 -4
-11 -10 -10 -10 -10 -11 -11 -11 -10 -10 -9 -9 -9 -9 -9 -8 -8 -7 -6 -6 -6 -5 -6 -5 -5 -4 -4 -3 -4 -3 -2 -2 -2 -2 -1 -1 -2 -3 -3 -3 -3 -3 -3 -3 -2 -3 -4
-11 -11 -11 -11 -11 -11 -11 -11 -11 -10 -10 -10 -10 -9 -8 -9 -8 -7 -7 -7 -7 -6 -6 -6 -5 -5 -5 -4 -4 -4 -3 -2 -2 -2 -2 -2 -3 -3 -3 -2 -3 -3 -3 -3 -3 -4 -3
-11 -11 -11 -11 -12 -12 -12 -11 -11 -11 -10 -10 -10 -9 -9 -9 -8 -8 -7 -8 -8 -7 -7 -6 -6 -5 -5 -5 -5 -4 -5 -4 -3 -3 -3 -3 -3 -3 -3 -3 -3 -4 -4 -4 -4 -3 -4
-12 -12 -12 -12 -12 -12 -12 -12 -11 -11 -10 -10 -10 -10 -9 -9 -9 -8 -9 -7 -8 -7 -7 -6 -6 -6 -6 -5 -5 -5 -4 -4 -4 -4 -4 -3 -4 -4 -4 -4 -4 -4 -5 -3 -3 -3 -3
-12 -12 -12 -12 -12 -12 -12 -12 -12 -12 -11 -11 -10 -10 -10 -9 -9 -9 -8 -7 -7 -8 -8 -7 -7 -7 -6 -5 -5 -5 -5 -5 -4 -4 -5 -5 -5 -6 -5 -5 -5 -5 -5 -4 -3 -3 -3
-13 -13 -13 -13 -12 -12 -12 -12 -12 -12 -12 -12 -10 -10 -11 -10 -9 -8 -8 -8 -8 -8 -7 -7 -7 -7 -6 -6 -6 -6 -6 -5 -5 -5 -5 -5 -5 -6 -6 -6 -5 -4 -4 -5 -4 -3 -3
-13 -13 -13 -13 -13 -12 -13 -13 -13 -12 -12 -12 -11 -11 -11 -10 -10 -10 -9 -9 -9 -8 -7 -7 -7 -7 -7 -7 -6 -6 -6 -6 -6 -6 -6 -6 -6 -6 -6 -7 -6 -6 -5 -4 -4 -4 -3
-13 -13 -13 -13 -13 -13 -13 -13 -13 -13 -13 -12 -12 -11 -11 -10 -9 -9 -9 -9 -8 -8 -8 -7 -7 -7 -7 -6 -6 -6 -7 -6 -6 -6 -6 -7 -7 -7 -8 -8 -7 -5 -5 -5 -5 -5 -4
-14 -13 -13 -13 -13 -13 -13 -13 -13 -13 -13 -12 -11 -11 -11 -11 -9 -10 -9 -9 -8 -8 -8 -8 -7 -7 -7 -7 -7 -6 -7 -6 -7 -7 -7 -7 -7 -7 -8 -7 -6 -5 -5 -5 -6 -5 -4
-13 -13 -12 -12 -13 -12 -12 -13 -13 -13 -12 -12 -12 -11 -11 -10 -9 -9 -9 -8 -8 -8 -8 -8 -8 -7 -7 -7 -7 -7 -7 -7 -6 -6 -6 -6 -7 -7 -8 -8 -7 -5 -6 -6 -5 -5 -5
-13 -13 -12 -12 -12 -12 -12 -12 -12 -12 -12 -12 -12 -11 -11 -10 -9 -9 -9 -8 -8 -8 -8 -8 -8 -7 -6 -7 -7 -7 -7 -7 -6 -7 -7 -7 -6 -6 -6 -6 -5 -5 -5 -5 -5 -6 -6

GFSGBSN_700_temp_120.txt.gz
Temp
2 2 2 2 2 2 2 2 2 2 1 2 2 2 2 2 2 3 3 3 3 4 5 6 6 6 7 7 6 7 7 7 7 7 7 7 7 7 8 8 6 6 7 7 8 8 7
1 2 1 1 2 2 2 2 2 2 2 1 2 2 2 2 2 3 3 3 4 4 5 5 6 6 7 7 6 7 7 7 7 7 7 6 6 6 6 7 6 6 6 7 8 7 7
1 1 1 1 1 1 1 1 2 2 2 2 1 2 2 2 2 2 3 3 4 4 4 5 5 6 6 6 6 6 6 7 6 6 6 5 5 5 6 7 6 6 6 6 6 6 6
-0 -0 1 1 1 1 0 1 1 2 2 2 2 2 2 2 2 2 3 3 3 3 4 4 5 6 6 6 6 6 6 6 6 7 6 5 5 5 5 5 5 5 4 5 5 5 4
-1 -1 -0 0 -0 -1 -0 0 1 1 2 2 2 1 2 2 2 2 2 2 2 3 3 4 5 5 6 6 6 6 5 5 5 5 5 5 5 4 5 5 4 4 4 4 3 4 3
-3 -2 -2 -1 -1 -1 -3 -1 -0 0 1 1 1 1 1 1 1 1 1 1 2 2 3 3 4 4 5 5 5 4 4 5 5 5 5 4 3 3 5 4 3 3 2 1 1 3 2
-5 -5 -4 -3 -4 -3 -2 -1 -1 -0 0 0 -0 0 0 0 0 0 0 1 2 2 3 3 3 4 4 4 5 5 5 5 5 4 4 4 3 4 5 3 2 1 0 -0 1 1 -0
-5 -5 -4 -5 -4 -4 -3 -2 -2 -1 -1 -1 -1 -1 -1 -1 -0 -0 -0 0 0 1 2 3 3 4 4 4 4 5 5 4 4 4 4 3 3 3 3 2 0 -0 -1 -1 -0 0 -1
-5 -6 -5 -4 -4 -4 -4 -3 -2 -2 -2 -2 -2 -1 -2 -1 -1 -1 -1 -1 -0 1 1 4 4 4 4 3 4 5 4 4 3 3 3 2 2 2 1 1 1 -0 -1 -0 -1 -1 -1
-6 -6 -7 -5 -5 -4 -4 -4 -3 -3 -3 -3 -3 -3 -2 -2 -2 -2 -1 -2 -1 -0 0 2 4 3 4 4 4 4 2 1 1 1 1 0 0 1 0 0 -0 -1 0 -1 -2 -2 -2
-7 -7 -7 -7 -7 -6 -5 -4 -4 -4 -4 -4 -3 -3 -3 -3 -2 -2 -2 -2 -1 -1 -5 2 2 3 3 3 3 3 4 2 1 1 0 0 1 0 -0 0 -1 -1 -1 -2 -2 -2 -2
-7 -7 -8 -7 -7 -7 -7 -6 -4 -4 -4 -4 -4 -4 -4 -3 -3 -3 -3 -2 -2 -2 -5 1 0 2 3 3 3 3 2 2 1 -1 -1 -1 -1 -1 -1 -1 -1 -2 -2 -2 -2 -3 -4
-7 -8 -8 -8 -7 -7 -7 -7 -6 -4 -4 -4 -4 -4 -4 -3 -3 -4 -4 -4 -4 -3 -0 0 1 1 2 2 2 2 2 2 1 -1 -1 -0 -0 -0 -1 -1 -2 -2 -2 -3 -4 -5 -4
-8 -7 -8 -8 -8 -8 -8 -8 -7 -5 -5 -5 -5 -4 -4 -4 -5 -5 -5 -6 -5 -1 -1 -0 0 -0 1 1 0 1 1 1 1 0 -1 -1 -1 0 0 -0 -1 -2 -2 -2 -3 -5 -4
-9 -8 -8 -8 -8 -8 -8 -8 -8 -7 -6 -6 -5 -5 -4 -4 -5 -6 -6 -7 -4 -2 -2 -1 -0 -0 -0 -0 -0 -0 -0 0 0 1 -0 -1 -1 -1 -1 -1 -1 -3 -3 -2 -3 -4 -4
-9 -9 -8 -8 -8 -8 -8 -8 -8 -8 -9 -8 -6 -6 -4 -5 -6 -6 -7 -7 -3 -3 -3 -3 -1 -1 -1 -1 -1 -1 -1 -1 -0 -0 0 -0 -1 -1 -1 -1 -2 -2 -2 -3 -4 -3 -4
-10 -9 -9 -9 -8 -8 -8 -8 -8 -8 -9 -9 -8 -7 -5 -6 -7 -7 -8 -6 -4 -4 -4 -4 -3 -2 -2 -2 -1 -1 -1 -1 -1 -0 -0 -1 -1 -2 -2 -2 -2 -2 -3 -3 -3 -4 -4
-11 -10 -9 -9 -9 -9 -9 -9 -9 -9 -9 -9 -10 -8 -7 -7 -8 -8 -8 -4 -4 -4 -5 -4 -5 -4 -3 -3 -3 -2 -2 -2 -1 -1 -1 -1 -2 -2 -2 -2 -2 -2 -3 -3 -4 -4 -5
-12 -10 -10 -9 -9 -9 -9 -9 -9 -9 -9 -10 -10 -9 -8 -8 -9 -7 -7 -6 -5 -5 -6 -6 -5 -5 -4 -3 -4 -3 -3 -2 -2 -2 -2 -1 -3 -3 -3 -3 -3 -3 -2 -2 -3 -3 -4
-12 -11 -11 -10 -10 -10 -9 -9 -9 -10 -10 -9 -10 -10 -10 -9 -9 -8 -7 -7 -6 -6 -7 -7 -6 -6 -6 -5 -5 -4 -4 -4 -3 -3 -2 -2 -2 -2 -3 -2 -2 -2 -2 -2 -3 -4 -4
-12 -12 -10 -11 -10 -10 -10 -10 -10 -10 -10 -10 -10 -9 -9 -9 -8 -8 -8 -7 -7 -7 -7 -7 -6 -6 -6 -6 -5 -5 -4 -4 -5 -4 -3 -3 -3 -3 -2 -3 -3 -3 -3 -3 -4 -3 -4
-12 -12 -12 -11 -11 -11 -11 -11 -10 -10 -11 -10 -10 -9 -9 -9 -8 -9 -9 -8 -8 -7 -8 -7 -7 -6 -6 -6 -6 -5 -5 -5 -5 -4 -5 -4 -4 -4 -3 -3 -4 -4 -4 -4 -4 -4 -4
-13 -12 -11 -11 -12 -11 -11 -11 -11 -11 -11 -10 -10 -9 -9 -9 -9 -9 -8 -7 -7 -8 -7 -7 -7 -7 -7 -6 -6 -6 -6 -6 -5 -5 -5 -5 -5 -5 -5 -4 -5 -5 -3 -3 -3 -3 -3
-12 -12 -11 -12 -12 -12 -12 -11 -11 -11 -11 -11 -10 -10 -10 -10 -10 -9 -9 -8 -8 -8 -8 -7 -8 -8 -7 -7 -7 -7 -6 -6 -6 -6 -6 -5 -5 -5 -5 -5 -5 -4 -4 -3 -4 -4 -4
-13 -12 -12 -12 -12 -12 -12 -12 -11 -12 -12 -12 -11 -11 -10 -10 -10 -9 -9 -8 -8 -9 -8 -9 -8 -8 -8 -7 -8 -7 -7 -7 -5 -5 -6 -6 -5 -6 -6 -6 -5 -4 -4 -4 -4 -4 -4
-13 -13 -13 -12 -12 -12 -12 -12 -12 -12 -12 -12 -12 -12 -12 -11 -10 -10 -10 -10 -9 -9 -8 -8 -8 -7 -8 -8 -8 -7 -7 -5 -6 -6 -6 -6 -6 -6 -7 -8 -8 -5 -4 -5 -5 -5 -5
-13 -13 -13 -13 -13 -13 -12 -12 -12 -12 -12 -12 -12 -12 -11 -11 -11 -10 -10 -10 -9 -9 -9 -8 -8 -8 -8 -8 -8 -7 -7 -6 -6 -6 -6 -6 -7 -7 -7 -7 -6 -5 -5 -5 -6 -5 -4
-14 -13 -13 -13 -13 -13 -13 -12 -12 -13 -13 -13 -12 -13 -12 -11 -11 -10 -10 -9 -9 -9 -9 -9 -9 -8 -9 -8 -9 -8 -7 -7 -6 -6 -6 -6 -7 -7 -7 -8 -8 -5 -6 -6 -5 -5 -5
-13 -13 -12 -13 -13 -13 -13 -13 -13 -13 -13 -13 -12 -12 -12 -12 -11 -10 -10 -9 -10 -10 -9 -9 -9 -8 -8 -8 -7 -8 -7 -7 -6 -6 -7 -7 -6 -6 -6 -6 -5 -5 -5 -5 -5 -6 -5

GFSGBSN_700_temp_123.txt.gz
Temp
1 2 2 2 2 2 2 2 2 2 3 2 2 3 2 2 2 2 2 3 3 3 4 4 5 6 6 7 6 7 7 7 7 7 7 7 7 7 7 7 7 7 7 8 7 7 6
1 1 1 1 1 1 1 1 2 2 3 3 2 2 2 2 2 2 2 2 3 3 3 4 5 5 6 7 6 7 7 7 7 7 7 6 7 7 7 6 6 7 7 7 7 6 6
1 1 1 1 0 1 1 1 1 1 2 2 2 2 2 2 2 2 2 2 2 3 3 4 5 5 6 6 6 6 6 6 6 6 6 6 6 6 6 6 6 6 6 6 6 7 6
-1 -1 -1 0 1 1 1 1 1 0 1 2 2 2 2 2 2 2 2 2 3 3 3 4 4 5 6 5 5 6 6 6 6 7 6 6 6 6 6 6 5 5 4 5 5 5 4
-1 -1 -1 -1 -1 -1 -1 -0 1 1 1 1 1 2 2 2 2 2 2 2 3 3 3 3 4 4 5 5 6 6 6 5 5 6 6 6 6 6 6 6 5 4 4 4 4 4 3
-3 -3 -1 -2 -2 -1 -1 -0 -0 -1 -2 0 1 1 1 1 1 1 2 2 2 2 3 3 3 4 4 5 5 5 5 5 5 5 5 5 5 5 6 5 3 4 3 2 3 3 2
-4 -4 -4 -4 -3 -3 -3 -2 -2 -2 -2 -3 -0 0 0 0 1 1 1 1 1 2 2 3 3 4 4 5 4 4 4 4 5 5 5 5 4 6 5 3 2 2 2 1 2 2 0
-5 -5 -5 -4 -5 -5 -4 -3 -3 -4 -4 -3 -2 -1 -1 -1 -0 -0 0 0 -0 0 1 2 2 3 3 3 4 4 4 4 4 5 4 4 3 4 3 2 2 1 1 2 1 1 -1
-6 -5 -5 -5 -5 -5 -6 -4 -5 -5 -3 -2 -2 -2 -2 -2 -1 -1 -1 -1 -1 -0 -0 2 2 3 3 3 3 4 4 4 4 3 3 3 2 3 2 2 2 0 1 1 -1 -1 -1
-6 -6 -6 -6 -6 -5 -5 -5 -5 -6 -6 -4 -3 -3 -3 -3 -3 -2 -2 -2 -2 -1 -1 1 3 3 3 3 3 4 3 3 2 2 2 1 2 1 1 1 0 -1 0 -1 -1 -2 -1
-7 -7 -7 -6 -6 -6 -6 -6 -5 -6 -6 -6 -5 -4 -4 -3 -3 -3 -3 -2 -2 -2 -2 1 1 2 2 3 3 4 4 3 3 2 1 1 1 1 0 0 -0 -1 -1 -1 -2 -2 -2
-8 -7 -7 -7 -6 -6 -6 -7 -6 -7 -6 -7 -6 -4 -4 -4 -4 -4 -3 -3 -2 -2 -4 0 0 2 2 2 2 3 3 3 1 -0 0 0 0 -0 -0 -1 -1 -1 -2 -2 -2 -3 -2
-9 -8 -8 -7 -7 -7 -6 -7 -7 -7 -6 -7 -6 -5 -5 -4 -5 -5 -4 -4 -4 -3 -1 -0 0 1 1 1 2 2 2 2 1 -1 -0 0 0 -0 -1 -1 -2 -2 -2 -2 -2 -3 -1
-10 -9 -8 -8 -8 -7 -7 -7 -7 -7 -7 -8 -7 -7 -5 -5 -6 -5 -5 -5 -5 -2 -1 -1 -1 -0 0 1 0 1 1 1 1 1 0 -0 -1 1 1 0 -1 -2 -2 -2 -2 -2 -1
-11 -10 -10 -8 -8 -8 -8 -7 -6 -6 -7 -7 -8 -7 -6 -5 -6 -6 -6 -7 -4 -2 -2 -2 -2 -1 -0 -0 -1 0 -0 0 1 1 1 -0 -1 -0 -0 -0 -1 -3 -3 -2 -3 -3 -3
-10 -10 -9 -9 -9 -7 -8 -8 -7 -7 -8 -8 -8 -7 -5 -7 -7 -7 -7 -7 -4 -3 -3 -2 -2 -1 -1 -1 -1 -1 -0 -0 0 0 0 -1 -1 -1 -1 -1 -1 -2 -2 -3 -3 -2 -2
-12 -12 -12 -10 -9 -8 -8 -8 -8 -8 -9 -9 -8 -9 -6 -8 -8 -8 -8 -5 -4 -4 -4 -4 -3 -2 -2 -2 -2 -1 -1 -1 -1 -0 -0 -1 -1 -1 -2 -2 -1 -2 -3 -3 -3 -3 -1
-13 -12 -11 -10 -9 -9 -9 -8 -8 -8 -8 -8 -8 -9 -8 -9 -9 -9 -8 -5 -5 -5 -5 -5 -4 -3 -3 -3 -3 -2 -2 -2 -2 -1 -1 -1 -2 -2 -2 -2 -2 -2 -2 -2 -3 -4 -4
-13 -13 -12 -10 -11 -10 -9 -9 -8 -8 -8 -8 -8 -8 -9 -9 -9 -9 -7 -5 -7 -7 -6 -6 -5 -5 -4 -4 -4 -4 -3 -3 -3 -2 -3 -2 -2 -3 -2 -3 -3 -3 -2 -2 -3 -4 -4
-13 -13 -12 -12 -11 -10 -8 -9 -9 -9 -9 -9 -9 -9 -10 -9 -9 -8 -7 -6 -7 -6 -6 -6 -6 -6 -6 -5 -5 -5 -4 -4 -3 -3 -3 -3 -3 -3 -2 -4 -3 -3 -2 -2 -2 -4 -3
-13 -13 -13 -12 -12 -11 -10 -9 -9 -9 -9 -9 -9 -10 -9 -9 -9 -8 -8 -7 -7 -7 -8 -7 -7 -7 -6 -6 -6 -5 -5 -5 -5 -4 -4 -4 -4 -4 -3 -3 -3 -3 -3 -3 -3 -3 -4
-13 -13 -13 -12 -12 -11 -10 -9 -10 -9 -9 -9 -9 -9 -10 -9 -8 -8 -9 -8 -7 -7 -8 -8 -7 -6 -7 -6 -6 -6 -6 -6 -5 -5 -5 -5 -5 -5 -4 -4 -4 -3 -3 -3 -4 -3 -4
-13 -14 -13 -12 -12 -11 -10 -10 -10 -10 -10 -10 -9 -9 -10 -9 -9 -9 -9 -7 -7 -8 -8 -8 -7 -7 -7 -6 -6 -6 -6 -6 -6 -6 -6 -6 -6 -5 -5 -5 -5 -5 -3 -3 -3 -3 -3
-13 -13 -13 -12 -11 -11 -11 -10 -10 -10 -10 -10 -9 -9 -9 -10 -9 -9 -8 -8 -8 -8 -8 -9 -8 -8 -7 -7 -8 -7 -7 -7 -7 -7 -6 -6 -6 -6 -5 -6 -5 -3 -3 -3 -3 -3 -3
-13 -13 -13 -11 -11 -11 -11 -11 -11 -11 -11 -10 -10 -10 -10 -10 -10 -9 -9 -9 -9 -9 -9 -9 -9 -9 -9 -8 -8 -8 -7 -7 -6 -5 -5 -6 -6 -7 -6 -6 -5 -4 -4 -3 -4 -3 -3
-13 -13 -12 -12 -11 -11 -11 -11 -11 -12 -11 -11 -10 -10 -10 -11 -10 -10 -10 -9 -9 -9 -9 -9 -9 -9 -8 -9 -9 -8 -7 -7 -6 -6 -5 -5 -6 -7 -6 -6 -5 -3 -4 -4 -4 -4 -3
-13 -13 -12 -12 -12 -11 -12 -12 -12 -12 -11 -11 -11 -11 -12 -12 -11 -11 -10 -10 -9 -9 -9 -9 -8 -9 -9 -9 -9 -9 -8 -7 -7 -6 -7 -7 -7 -6 -7 -7 -5 -4 -5 -5 -5 -4 -4
-14 -14 -13 -13 -12 -12 -12 -12 -12 -12 -12 -12 -11 -11 -12 -12 -11 -11 -11 -10 -10 -10 -10 -9 -9 -9 -9 -9 -9 -9 -8 -8 -7 -7 -6 -6 -6 -6 -7 -7 -6 -5 -5 -5 -4 -4 -5
-14 -13 -13 -13 -12 -12 -12 -12 -12 -12 -12 -12 -12 -12 -12 -12 -12 -11 -11 -10 -9 -10 -10 -9 -9 -9 -9 -9 -9 -9 -8 -8 -7 -8 -7 -6 -5 -5 -6 -5 -5 -5 -4 -5 -5 -5 -5

GFSGBSN_700_temp_129.txt.gz
Temp
2 2 2 2 2 2 2 2 2 2 2 2 2 3 3 3 3 3 4 4 4 4 4 4 4 4 5 5 5 7 7 7 7 7 7 7 7 5 6 7 6 7 7 6 6 8 7
1 2 2 2 2 2 2 2 2 2 2 2 2 2 3 3 3 3 3 4 4 4 4 4 3 4 4 5 5 6 7 7 7 7 7 7 6 5 6 5 6 6 7 6 6 6 5
0 0 1 1 2 1 1 1 1 1 2 2 2 2 2 2 2 3 3 3 4 4 4 4 3 4 4 5 5 5 6 7 7 6 6 6 7 7 5 5 5 7 7 6 6 6 5
-0 -0 0 1 1 1 1 2 1 1 1 1 1 2 1 2 2 2 3 3 3 4 4 3 3 4 5 5 5 5 5 6 6 6 6 7 6 6 5 4 6 6 6 7 8 6 5
-0 -1 -0 -0 -0 0 -0 0 -0 0 1 1 1 1 1 2 2 2 2 2 2 3 4 3 3 4 4 6 5 5 5 5 6 6 6 6 6 5 5 5 5 6 8 8 7 6 6
-0 0 -1 -1 -1 -1 -2 -2 -2 -2 -1 -0 0 1 1 1 1 1 1 1 2 2 3 3 3 3 4 4 5 5 5 5 5 5 5 5 5 4 5 5 8 9 8 8 8 6 5
-1 -0 0 -1 -2 -3 -3 -2 -2 -3 -2 -2 -1 -1 -1 -0 -0 0 1 1 1 2 2 3 1 4 3 4 5 4 4 5 4 4 4 5 3 4 6 6 6 6 6 7 8 7 5
-2 -2 -2 -2 -2 -3 -3 -4 -4 -4 -4 -3 -3 -2 -2 -2 -1 -1 -0 -0 -0 1 0 2 2 3 2 3 4 4 4 4 4 3 2 2 3 5 6 5 5 5 5 6 6 6 3
-4 -5 -4 -5 -6 -4 -4 -4 -4 -4 -3 -4 -3 -0 -2 -2 -2 -2 -1 -2 -3 -2 -1 1 1 2 3 2 3 2 3 3 3 2 3 4 5 4 4 3 4 4 5 6 6 5 4
-5 -6 -6 -6 -6 -5 -5 -4 -4 -4 -5 -4 -4 -3 -3 -2 -2 -2 -1 -3 -5 -4 -3 -0 1 2 2 2 3 3 3 2 2 3 4 3 4 3 4 3 4 5 5 3 3 3 5
-6 -6 -6 -7 -7 -6 -5 -4 -5 -5 -5 -5 -5 -4 -4 -4 -3 -2 -3 -3 -6 -5 -3 1 -1 1 2 3 2 3 1 2 1 2 3 4 3 3 3 4 4 4 2 2 3 3 4
-6 -7 -8 -8 -7 -7 -6 -6 -5 -5 -5 -5 -5 -5 -5 -5 -4 -4 -5 -6 -5 -5 -3 0 -2 1 1 2 -1 -0 1 2 0 1 2 3 2 2 3 3 2 2 1 1 2 3 4
-7 -6 -7 -8 -8 -8 -7 -6 -5 -5 -5 -5 -5 -5 -5 -6 -5 -5 -5 -5 -6 -5 -0 1 -0 -1 -1 -1 -1 -2 1 -1 -0 0 1 1 1 1 1 1 1 1 2 4 5 5 5
-8 -8 -7 -8 -8 -9 -8 -7 -6 -6 -6 -6 -6 -6 -6 -5 -6 -6 -6 -7 -7 -4 -0 0 -1 -1 -1 -0 -1 -2 -1 -1 -1 1 3 2 3 1 0 2 2 1 2 4 5 6 8
-8 -8 -8 -8 -8 -8 -8 -9 -7 -6 -6 -6 -6 -7 -7 -5 -6 -7 -8 -8 -6 -3 -0 -1 -1 -1 -0 0 0 -1 -1 -0 -0 0 2 3 4 2 1 1 2 2 2 3 3 3 3
-9 -9 -9 -8 -8 -8 -8 -8 -8 -7 -6 -6 -7 -7 -6 -6 -7 -9 -8 -7 -5 -4 -2 -1 -0 -0 1 0 -0 -0 -0 0 1 -0 1 2 3 2 0 0 1 2 1 1 1 2 3
-9 -9 -9 -9 -9 -8 -9 -8 -9 -8 -8 -7 -6 -7 -7 -7 -8 -9 -7 -7 -5 -4 -3 -3 -2 -0 0 1 0 0 1 0 0 0 -0 1 2 1 -0 0 2 1 0 1 2 2 3
-9 -9 -9 -9 -9 -9 -9 -9 -8 -9 -9 -8 -7 -7 -7 -8 -8 -8 -8 -4 -6 -5 -5 -5 -3 -2 -1 -1 0 1 1 1 -1 -1 -0 0 1 2 1 1 1 2 1 1 1 1 1
-10 -10 -9 -9 -9 -9 -9 -10 -10 -9 -8 -9 -8 -7 -8 -8 -9 -9 -6 -7 -7 -6 -6 -5 -5 -4 -3 -2 -1 -1 -1 -2 -1 -1 -1 -1 -1 0 1 1 0 0 1 1 1 1 1
-10 -10 -10 -10 -10 -10 -11 -11 -11 -11 -9 -10 -10 -9 -8 -8 -8 -9 -8 -7 -7 -7 -6 -6 -5 -4 -4 -4 -3 -2 -2 -2 -2 -2 -1 -2 -2 -0 1 1 -1 -2 -0 0 1 -0 -1
-11 -11 -10 -10 -10 -11 -12 -12 -12 -12 -12 -11 -10 -9 -8 -8 -8 -7 -7 -7 -6 -6 -7 -7 -6 -6 -5 -4 -3 -3 -3 -5 -4 -3 -3 -2 -3 -1 -1 -0 -2 -3 -3 -2 -1 -1 -2
-11 -11 -11 -11 -12 -12 -12 -12 -12 -12 -12 -11 -10 -9 -8 -7 -6 -7 -7 -7 -6 -6 -6 -7 -7 -7 -6 -6 -5 -5 -5 -5 -5 -5 -4 -4 -5 -4 -4 -3 -1 -1 -1 -1 -0 -1 -1
-12 -12 -12 -12 -12 -12 -12 -12 -12 -12 -12 -11 -10 -9 -9 -8 -7 -8 -7 -6 -6 -6 -6 -6 -6 -6 -7 -6 -6 -6 -6 -6 -6 -5 -5 -5 -5 -4 -4 -3 -2 -2 -1 -1 -1 -0 -0
-12 -12 -13 -13 -13 -12 -12 -13 -12 -12 -12 -10 -10 -9 -8 -8 -8 -8 -7 -7 -6 -6 -7 -6 -7 -7 -7 -7 -7 -7 -7 -7 -6 -6 -6 -5 -5 -5 -5 -4 -4 -2 -2 -1 -1 -1 -0
-12 -13 -13 -13 -13 -12 -12 -13 -13 -12 -11 -11 -10 -10 -9 -9 -8 -8 -8 -7 -7 -7 -7 -7 -7 -7 -7 -7 -8 -7 -8 -7 -7 -7 -6 -6 -5 -6 -5 -4 -3 -2 -1 -2 -2 -2 -2
-13 -13 -14 -13 -13 -13 -13 -12 -12 -12 -11 -10 -10 -10 -9 -9 -8 -8 -8 -7 -7 -7 -8 -8 -8 -7 -8 -8 -8 -8 -7 -5 -4 -5 -6 -6 -6 -6 -5 -5 -3 -3 -2 -2 -3 -4 -3
-14 -14 -14 -13 -13 -12 -12 -12 -12 -11 -11 -10 -10 -9 -8 -9 -9 -8 -8 -8 -7 -8 -8 -8 -8 -8 -8 -8 -8 -8 -6 -5 -6 -5 -6 -6 -6 -6 -6 -6 -4 -4 -3 -4 -4 -3 -3
-14 -14 -13 -13 -12 -12 -12 -12 -11 -11 -10 -10 -9 -9 -9 -9 -9 -9 -8 -9 -8 -8 -8 -8 -9 -9 -9 -9 -8 -7 -7 -6 -5 -5 -5 -6 -5 -5 -5 -5 -5 -4 -4 -5 -4 -4 -4
-14 -13 -13 -13 -12 -12 -12 -11 -11 -11 -10 -10 -10 -10 -10 -10 -9 -9 -9 -9 -8 -8 -8 -8 -8 -8 -9 -8 -8 -7 -7 -6 -6 -6 -5 -5 -5 -5 -5 -5 -5 -6 -5 -5 -4 -5 -5

GFSGBSN_700_temp_132.txt.gz
Temp
2 2 2 2 2 2 2 2 2 2 2 2 2 2 2 2 3 3 3 3 4 4 4 4 5 5 5 5 6 7 7 7 7 7 7 7 6 6 7 8 9 8 8 9 8 8 10
1 1 0 2 2 2 2 2 2 2 2 2 2 2 2 3 3 3 3 3 3 3 4 4 4 4 5 5 5 7 6 7 7 7 7 7 5 6 6 7 8 8 8 8 7 7 7
1 1 0 1 2 2 2 2 2 2 2 2 2 2 2 2 2 3 2 2 3 3 3 4 4 4 5 6 5 6 6 6 6 7 7 5 4 5 6 6 6 6 7 8 8 7 7
1 1 0 0 1 1 2 2 1 2 1 1 1 2 1 1 2 2 2 2 2 3 3 3 4 4 5 5 6 6 6 6 6 6 6 6 6 7 6 6 6 6 6 7 9 8 6
-0 0 0 0 -0 -1 -0 0 1 0 1 2 2 1 1 1 1 1 2 2 2 2 2 2 3 3 5 6 6 6 6 6 6 6 6 6 6 6 4 5 5 6 8 8 9 8 7
0 -0 1 1 0 -1 -1 -1 -1 -1 -0 0 0 -0 1 1 1 1 1 1 1 2 2 2 2 3 5 5 6 6 6 5 5 5 5 6 5 4 4 5 6 8 8 9 10 8 7
-0 -0 -0 -1 -1 1 -0 -0 -1 -1 -2 -2 -2 -2 -2 -2 -1 -0 -1 0 1 1 1 2 2 3 3 4 5 5 5 5 4 4 5 5 4 4 5 5 6 8 9 9 9 9 7
-1 -1 -1 -1 -1 -2 -2 -2 -1 -1 -3 -3 -2 -2 -2 -2 -1 -2 -2 -2 -1 -1 0 2 3 2 3 3 4 4 4 4 4 4 4 3 3 5 5 6 6 7 7 7 8 8 8
-2 -2 -2 -2 -2 -1 -2 -2 -3 -3 -4 -4 -3 -2 -2 -2 -3 -3 -3 -3 -2 -1 -2 1 2 3 3 2 3 2 3 4 3 3 2 3 5 5 5 6 6 6 6 7 7 8 7
-3 -3 -3 -3 -3 -3 -4 -4 -4 -4 -4 -4 -4 -4 -4 -4 -3 -4 -3 -3 -2 -2 -3 -0 2 4 2 1 1 4 1 3 2 2 3 4 5 5 5 5 6 6 6 6 6 6 6
-4 -4 -4 -4 -5 -5 -5 -5 -4 -5 -4 -5 -4 -5 -4 -5 -5 -5 -5 -4 -3 -3 -3 2 1 0 2 1 2 4 2 2 2 2 3 4 5 5 5 5 5 5 6 5 5 5 5
-5 -5 -5 -5 -5 -6 -6 -6 -5 -5 -5 -5 -5 -5 -5 -5 -5 -5 -5 -5 -5 -5 -4 1 1 1 1 1 3 1 2 1 2 2 3 3 5 5 4 4 5 5 4 3 3 4 4
-5 -5 -5 -5 -6 -6 -7 -7 -7 -6 -5 -6 -5 -5 -5 -5 -5 -6 -6 -6 -7 -5 -1 1 1 -0 1 1 3 0 1 1 1 1 2 3 3 4 3 4 4 4 2 3 3 4 4
-6 -6 -6 -6 -6 -6 -7 -7 -7 -7 -6 -6 -5 -5 -6 -5 -6 -6 -6 -7 -7 -1 -1 2 2 0 -0 0 -0 -0 -0 1 0 1 3 2 3 3 2 3 4 3 2 4 4 5 7
-7 -7 -7 -7 -7 -7 -7 -7 -8 -8 -7 -7 -6 -6 -6 -5 -6 -6 -7 -7 -6 -3 -1 -0 1 1 1 1 1 0 -0 -0 1 0 1 3 3 4 3 2 3 3 3 3 4 4 4
-7 -7 -7 -7 -7 -7 -7 -7 -8 -8 -8 -7 -7 -7 -6 -6 -7 -7 -7 -7 -6 -2 -1 -1 -0 1 2 1 1 1 1 0 1 1 1 2 3 3 4 2 2 3 3 2 3 2 2
-8 -7 -7 -7 -8 -8 -8 -8 -8 -8 -8 -8 -8 -8 -7 -6 -7 -8 -7 -7 -4 -2 -3 -3 -2 -0 1 2 1 1 1 1 1 1 0 1 2 3 3 2 2 2 2 3 2 2 3
-8 -8 -8 -8 -8 -8 -8 -8 -9 -9 -9 -9 -8 -9 -8 -8 -7 -8 -8 -5 -2 -4 -5 -5 -4 -3 -1 1 1 0 1 2 1 1 1 1 1 2 3 2 2 3 2 2 2 2 2
-8 -8 -8 -8 -8 -8 -8 -9 -9 -9 -10 -10 -10 -9 -8 -8 -7 -7 -6 -5 -7 -6 -5 -6 -6 -4 -2 -1 -1 -1 1 -2 -1 0 1 0 0 1 2 2 2 2 2 2 2 1 1
-9 -9 -9 -9 -9 -9 -9 -9 -9 -10 -11 -11 -11 -10 -9 -8 -8 -7 -6 -8 -7 -6 -5 -6 -5 -5 -4 -4 -2 -2 -4 -3 -3 -3 -1 -0 -0 0 2 2 2 1 1 1 1 -0 -0
-10 -10 -10 -10 -9 -9 -9 -9 -10 -11 -12 -12 -12 -11 -9 -9 -8 -8 -7 -7 -7 -6 -6 -6 -6 -6 -5 -5 -4 -3 -4 -4 -4 -4 -3 -2 -2 -1 -0 -0 0 -1 -1 -1 -2 -2 -2
-11 -10 -10 -10 -10 -10 -10 -10 -11 -12 -12 -12 -12 -11 -10 -9 -9 -8 -8 -7 -7 -6 -6 -6 -6 -5 -5 -5 -5 -4 -5 -6 -5 -5 -4 -4 -3 -3 -3 -2 -2 -2 -1 -3 -3 -3 -2
-11 -11 -11 -10 -10 -10 -11 -11 -12 -12 -12 -12 -11 -11 -11 -10 -9 -9 -8 -7 -7 -6 -6 -5 -5 -5 -6 -5 -6 -6 -5 -5 -5 -5 -4 -5 -5 -4 -4 -3 -3 -3 -3 -3 -2 -1 -0
-12 -11 -11 -11 -11 -11 -12 -12 -12 -12 -12 -12 -11 -11 -11 -10 -10 -9 -8 -7 -7 -6 -7 -6 -6 -6 -5 -6 -6 -5 -6 -7 -6 -5 -5 -6 -5 -5 -5 -4 -4 -3 -2 -2 -2 -1 -1
-12 -12 -12 -12 -12 -13 -13 -13 -13 -12 -12 -12 -11 -12 -11 -9 -9 -8 -8 -7 -7 -7 -6 -5 -5 -6 -7 -7 -7 -7 -7 -7 -6 -6 -6 -5 -6 -6 -5 -5 -4 -3 -2 -1 -1 -1 -2
-12 -12 -12 -12 -13 -13 -13 -13 -12 -12 -12 -12 -11 -12 -11 -10 -9 -8 -6 -7 -7 -7 -7 -6 -6 -6 -6 -7 -7 -7 -7 -6 -5 -6 -4 -5 -6 -6 -5 -5 -5 -3 -2 -2 -2 -4 -2
-12 -13 -13 -13 -13 -13 -13 -12 -12 -12 -12 -12 -11 -12 -11 -9 -9 -7 -7 -7 -7 -7 -7 -7 -7 -7 -7 -7 -7 -7 -7 -6 -6 -5 -5 -6 -6 -6 -6 -5 -5 -3 -4 -3 -3 -4 -3
-13 -14 -14 -14 -13 -13 -12 -12 -11 -11 -12 -12 -10 -11 -11 -10 -9 -8 -8 -7 -7 -7 -7 -7 -7 -8 -8 -8 -8 -7 -7 -6 -6 -5 -5 -6 -6 -6 -6 -6 -5 -4 -4 -4 -3 -3 -4
-14 -14 -14 -14 -13 -12 -12 -12 -12 -12 -12 -12 -11 -10 -10 -9 -9 -9 -8 -8 -7 -7 -7 -7 -7 -7 -7 -7 -7 -6 -7 -6 -6 -6 -5 -5 -5 -5 -6 -5 -5 -5 -5 -5 -4 -4 -4

GFSGBSN_700_temp_138.txt.gz
Temp
1 1 1 2 2 2 2 2 2 2 3 3 3 3 3 3 3 4 4 4 3 4 4 4 4 4 5 5 6 5 6 7 6 7 7 8 8 7 8 8 7 7 8 8 8 8 8
1 1 1 1 1 2 2 2 2 2 1 1 2 2 2 2 3 3 3 3 3 3 3 3 4 4 4 5 5 5 6 6 6 6 6 7 6 7 8 8 7 7 8 8 8 8 8
1 1 0 0 1 1 1 1 2 1 1 1 1 1 2 2 2 3 2 3 3 3 3 3 3 4 4 6 4 5 5 6 6 6 6 6 7 7 7 8 7 7 7 8 7 8 8
0 0 -0 -0 0 1 0 -0 0 1 1 0 1 1 1 1 1 2 2 2 2 3 3 3 3 3 4 5 5 5 5 6 6 6 6 6 6 7 7 7 7 7 7 8 8 8 7
0 0 0 0 0 -0 0 0 1 1 1 0 0 1 1 1 1 1 2 2 2 3 3 3 3 3 4 5 5 5 6 6 6 5 6 6 6 6 6 6 6 7 7 7 8 9 8
-1 -1 -1 0 -0 -0 0 0 1 0 -0 -0 0 1 1 1 0 1 1 1 1 2 3 2 3 2 4 4 5 5 5 5 5 5 6 6 5 5 5 6 6 6 6 7 8 9 8
-1 -1 -1 -1 -0 0 0 -1 -2 -0 -0 -1 -1 -1 -1 -0 0 -0 -0 0 1 1 2 1 1 2 2 2 4 5 4 4 4 5 6 6 4 5 8 6 6 6 6 6 7 8 6
-2 -2 -1 -1 -1 -0 -1 -1 -1 -1 -0 0 -0 1 1 -0 -1 -0 -1 -1 -0 -1 1 1 -0 1 2 2 2 3 4 3 4 5 5 4 5 7 6 5 5 5 5 6 7 8 6
-2 -2 -2 -2 -2 -1 -1 -1 -1 -1 -0 0 0 0 -0 0 -1 -1 -1 -1 -1 -1 -1 2 1 2 2 2 3 3 3 3 3 3 4 5 5 5 6 5 4 4 4 5 5 7 6
-3 -3 -3 -2 -2 -2 -2 -2 -2 -1 -2 -2 -2 -2 -2 -2 -1 -1 -1 -1 -1 -0 -1 2 3 4 3 3 3 3 2 2 2 2 3 3 4 5 4 4 4 4 5 5 5 5 6
-4 -4 -4 -3 -3 -3 -3 -2 -2 -2 -2 -4 -5 -5 -4 -4 -2 -3 -3 -3 -4 -5 -4 3 2 2 3 3 4 3 3 2 2 3 2 3 4 5 5 5 5 4 5 5 5 6 6
-5 -5 -4 -4 -4 -4 -4 -3 -3 -3 -3 -5 -4 -5 -5 -4 -4 -4 -5 -4 -5 -5 -5 1 1 3 3 3 4 3 2 1 0 0 1 1 2 3 3 4 4 4 4 4 5 5 3
-6 -5 -5 -5 -5 -5 -4 -4 -4 -3 -4 -5 -5 -4 -5 -5 -5 -5 -5 -5 -5 -5 -1 1 1 1 2 2 2 3 2 1 1 -1 -0 1 2 3 3 3 3 4 4 3 1 0 2
-7 -6 -6 -6 -6 -6 -5 -5 -5 -5 -4 -6 -5 -5 -5 -6 -6 -6 -6 -6 -6 -2 -1 0 0 -0 -0 1 1 2 1 2 2 2 1 1 1 3 4 4 4 4 4 3 1 0 3
-7 -7 -7 -7 -7 -6 -6 -6 -5 -5 -5 -5 -6 -5 -6 -6 -6 -5 -6 -6 -4 -3 -2 -2 -2 -0 -1 -1 -1 0 0 2 2 3 1 1 2 4 3 4 3 3 4 4 4 2 1
-8 -8 -7 -7 -7 -7 -7 -7 -6 -6 -5 -6 -6 -6 -6 -6 -6 -6 -6 -6 -5 -3 -3 -3 -3 -2 -1 -1 -0 -1 -0 1 2 2 1 1 1 2 3 3 3 3 4 3 3 2 2
-8 -8 -8 -8 -8 -7 -7 -7 -7 -6 -6 -6 -6 -6 -7 -7 -7 -7 -7 -7 -5 -3 -5 -5 -5 -4 -2 -3 -2 -1 -2 -0 0 0 0 1 0 1 2 3 3 2 3 3 3 3 2
-8 -8 -8 -8 -8 -8 -8 -8 -7 -7 -7 -7 -7 -7 -7 -8 -8 -8 -7 -7 -5 -4 -6 -6 -5 -5 -4 -5 -3 -3 -2 -2 -2 -1 -1 -0 -0 -0 0 2 2 2 2 3 3 2 2
-9 -9 -8 -8 -8 -8 -8 -8 -8 -7 -7 -7 -7 -8 -7 -8 -9 -9 -8 -8 -7 -6 -6 -6 -6 -5 -5 -5 -4 -3 -3 -3 -2 -3 -2 -1 -1 -1 -0 -0 1 1 2 2 2 2 2
-9 -9 -9 -9 -9 -9 -9 -8 -8 -8 -8 -8 -8 -8 -8 -8 -8 -8 -9 -8 -7 -6 -7 -7 -7 -6 -6 -5 -5 -5 -4 -4 -4 -4 -3 -3 -3 -2 -1 -1 -0 1 1 2 2 1 1
-10 -10 -10 -10 -9 -9 -9 -9 -9 -9 -8 -8 -8 -8 -8 -8 -8 -9 -10 -8 -8 -7 -6 -7 -7 -7 -6 -6 -5 -5 -6 -5 -5 -4 -4 -4 -4 -4 -3 -4 -2 -0 0 1 1 -0 -0
-10 -10 -10 -10 -10 -10 -9 -9 -10 -9 -9 -9 -9 -9 -9 -9 -9 -9 -10 -8 -8 -6 -9 -7 -7 -7 -6 -7 -6 -6 -5 -5 -5 -6 -5 -5 -5 -6 -6 -5 -5 -5 -3 -4 -3 -3 -3
-11 -11 -11 -11 -11 -11 -10 -10 -10 -10 -10 -10 -10 -10 -10 -9 -9 -10 -9 -9 -8 -9 -9 -8 -7 -7 -7 -6 -6 -6 -6 -6 -5 -6 -6 -6 -6 -6 -6 -6 -6 -5 -3 -5 -5 -5 -5
-12 -11 -11 -11 -11 -11 -11 -11 -11 -11 -11 -10 -10 -11 -11 -9 -9 -9 -10 -10 -9 -9 -10 -9 -7 -8 -5 -6 -6 -6 -6 -7 -7 -6 -6 -6 -6 -6 -6 -6 -6 -3 -3 -3 -3 -3 -3
-12 -12 -12 -12 -12 -12 -11 -11 -11 -11 -11 -11 -11 -11 -12 -10 -11 -10 -10 -10 -10 -10 -9 -10 -8 -7 -7 -7 -6 -6 -6 -7 -6 -6 -5 -5 -6 -6 -5 -5 -5 -3 -3 -3 -4 -3 -4
-12 -12 -12 -12 -12 -12 -12 -11 -11 -11 -12 -12 -12 -13 -13 -13 -9 -10 -11 -11 -11 -10 -10 -9 -8 -8 -8 -7 -6 -7 -6 -6 -5 -5 -5 -6 -7 -6 -6 -6 -6 -3 -4 -5 -4 -3 -3
-12 -12 -12 -12 -12 -12 -12 -12 -12 -12 -12 -13 -13 -14 -14 -13 -10 -12 -11 -10 -11 -11 -11 -10 -8 -8 -8 -7 -7 -7 -6 -6 -5 -6 -5 -6 -7 -7 -7 -7 -6 -4 -5 -4 -4 -4 -4
-12 -12 -12 -12 -12 -12 -12 -12 -12 -12 -13 -14 -13 -14 -14 -13 -12 -12 -10 -11 -11 -11 -11 -8 -8 -7 -7 -8 -7 -7 -7 -6 -6 -5 -6 -5 -5 -7 -7 -7 -7 -5 -5 -5 -5 -5 -5
-13 -12 -12 -12 -12 -12 -12 -12 -13 -13 -13 -14 -14 -13 -14 -14 -13 -11 -10 -10 -11 -10 -11 -10 -8 -8 -7 -7 -7 -7 -6 -6 -6 -6 -6 -6 -5 -5 -5 -5 -5 -5 -5 -5 -5 -5 -5

GFSGBSN_700_temp_141.txt.gz
Temp
3 2 2 2 3 3 3 3 3 3 3 3 2 2 2 3 3 4 4 4 4 4 4 5 4 5 5 5 6 5 6 6 6 7 7 6 7 8 8 8 8 7 8 8 8 8 8
1 1 1 1 1 2 2 2 2 2 2 2 2 2 3 2 3 3 3 4 4 3 4 4 4 4 4 5 6 5 6 6 5 6 6 6 6 7 7 8 7 7 8 8 8 8 8
2 1 1 1 1 1 1 2 2 2 1 1 1 1 2 2 2 2 3 3 3 3 3 3 3 4 4 5 5 5 5 5 6 5 6 5 6 6 7 7 6 7 7 7 7 7 7
0 1 0 -0 0 1 1 0 1 1 0 1 0 1 1 1 1 1 2 2 3 2 2 3 3 3 4 5 5 4 5 6 6 5 6 5 5 6 6 6 6 7 7 7 7 7 7
-0 -0 0 -0 -0 -1 -0 -0 -0 0 0 1 0 1 1 1 1 2 3 3 3 2 2 3 3 3 4 4 4 5 6 5 5 6 6 6 5 5 5 5 6 6 6 7 7 8 7
-0 -0 -0 -0 0 -0 -0 0 -0 -0 -0 0 0 0 1 0 1 1 2 2 2 2 1 1 2 2 3 3 4 5 5 4 5 5 5 6 4 5 5 6 5 6 6 7 7 8 8
-1 -1 -1 -1 -1 -2 -1 -0 -0 -0 -1 0 -0 -1 -0 0 0 0 0 1 1 1 1 2 2 2 2 3 3 4 4 4 4 5 5 5 4 5 7 7 6 6 5 5 7 7 7
-2 -3 -2 -3 -3 -3 -2 -1 -1 -0 -1 -1 0 -1 -1 -0 -1 -1 -1 -1 0 0 2 2 3 2 2 2 3 3 3 3 3 4 5 4 5 6 5 5 5 5 5 5 6 6 6
-3 -3 -2 -2 -2 -1 -1 -1 -1 -1 -1 -1 -1 -1 -1 -1 -0 0 -0 1 1 -0 -1 4 3 3 4 2 3 4 4 4 4 3 3 4 5 4 5 5 4 4 4 5 5 6 6
-3 -3 -3 -2 -2 -2 -1 -1 -1 -2 -3 -2 -1 -1 -0 -0 -1 -0 -1 -0 0 -1 -2 2 3 4 4 3 3 4 4 4 3 2 2 2 3 4 3 4 4 4 5 5 4 4 3
-4 -4 -4 -3 -3 -2 -2 -2 -2 -2 -3 -3 -2 -2 -2 -2 -3 -2 -2 -2 -2 -2 -3 2 2 2 3 3 4 4 3 2 3 2 1 3 3 4 4 4 4 4 4 4 4 4 4
-4 -4 -4 -4 -4 -3 -3 -3 -2 -3 -3 -3 -3 -4 -5 -4 -4 -4 -3 -4 -3 -3 -5 1 1 1 2 3 3 2 3 2 2 1 0 0 1 1 3 3 3 2 3 3 3 3 2
-5 -5 -5 -5 -4 -4 -3 -3 -3 -3 -3 -4 -5 -5 -6 -5 -5 -5 -5 -5 -5 -6 -0 0 -0 0 1 2 2 1 1 2 2 -0 0 1 1 1 1 2 2 2 2 1 0 -0 2
-7 -6 -6 -5 -5 -5 -4 -4 -3 -4 -4 -4 -6 -5 -5 -5 -5 -5 -5 -5 -5 -2 -0 -0 -1 -1 -1 -0 0 0 -0 0 0 1 2 1 2 4 4 3 3 3 2 2 1 -1 2
-7 -7 -7 -6 -6 -6 -5 -5 -5 -4 -4 -5 -6 -5 -5 -5 -5 -6 -6 -6 -4 -3 -3 -1 -1 -2 -0 -1 -1 -1 -0 0 1 0 -0 1 2 3 4 4 3 2 1 2 2 1 0
-8 -7 -7 -7 -7 -6 -6 -6 -6 -6 -5 -5 -6 -6 -5 -6 -6 -6 -6 -6 -4 -4 -4 -4 -3 -2 -2 -1 -1 -1 -1 -0 -0 -0 -0 0 -0 2 2 2 3 2 3 2 1 -1 -1
-8 -8 -7 -7 -7 -7 -7 -7 -7 -6 -6 -6 -6 -7 -6 -6 -7 -6 -6 -6 -5 -5 -4 -5 -5 -4 -3 -2 -2 -2 -2 -1 -1 -1 -1 -1 -1 0 1 1 2 2 1 2 3 2 1
-8 -8 -8 -8 -7 -7 -7 -7 -7 -7 -7 -7 -7 -7 -6 -7 -8 -7 -7 -6 -6 -6 -6 -6 -6 -5 -4 -3 -5 -4 -3 -3 -3 -3 -2 -2 -2 -2 -1 0 1 1 2 1 1 1 2
-8 -8 -8 -8 -8 -8 -8 -8 -8 -7 -7 -7 -7 -7 -7 -7 -8 -7 -7 -7 -7 -6 -7 -7 -7 -6 -6 -5 -5 -5 -4 -4 -4 -4 -3 -3 -3 -4 -1 -1 -1 -1 1 1 0 1 1
-9 -9 -8 -8 -8 -8 -8 -8 -8 -8 -8 -8 -8 -8 -8 -8 -7 -7 -8 -7 -7 -6 -7 -7 -7 -7 -6 -6 -5 -6 -5 -5 -4 -4 -3 -4 -4 -4 -4 -5 -4 -3 -1 -1 -1 -1 -2
-9 -9 -9 -9 -9 -9 -9 -9 -9 -9 -9 -8 -8 -9 -8 -8 -7 -7 -8 -8 -7 -8 -8 -8 -8 -7 -7 -7 -7 -6 -6 -5 -5 -5 -4 -4 -5 -5 -5 -5 -5 -6 -5 -3 -2 -1 -1
-10 -10 -10 -9 -9 -9 -9 -9 -9 -9 -9 -9 -9 -9 -9 -8 -8 -9 -9 -7 -7 -8 -9 -8 -9 -8 -8 -7 -6 -6 -6 -6 -6 -5 -5 -5 -5 -5 -6 -5 -5 -6 -4 -5 -4 -3 -3
-11 -11 -10 -10 -10 -10 -10 -10 -10 -10 -10 -9 -9 -9 -10 -9 -9 -9 -8 -8 -8 -9 -8 -9 -9 -9 -9 -7 -6 -6 -7 -7 -7 -6 -5 -6 -6 -6 -6 -5 -6 -5 -2 -3 -5 -5 -5
-12 -11 -11 -11 -10 -10 -10 -10 -10 -10 -10 -10 -10 -10 -10 -10 -10 -9 -9 -9 -9 -9 -9 -9 -9 -9 -7 -9 -8 -7 -6 -6 -7 -6 -6 -7 -6 -6 -6 -6 -7 -3 -4 -4 -4 -3 -5
-12 -12 -12 -11 -11 -11 -11 -11 -11 -11 -11 -11 -11 -11 -11 -10 -10 -10 -9 -9 -10 -10 -9 -9 -8 -9 -9 -10 -8 -7 -7 -7 -6 -6 -6 -6 -6 -6 -6 -6 -5 -4 -4 -4 -5 -3 -4
-12 -12 -12 -12 -12 -12 -12 -12 -12 -12 -12 -11 -11 -11 -12 -12 -10 -10 -11 -10 -10 -10 -9 -9 -9 -9 -9 -9 -10 -8 -6 -6 -7 -6 -6 -7 -7 -7 -7 -7 -8 -4 -4 -4 -5 -4 -4
-12 -12 -12 -12 -12 -12 -12 -12 -12 -12 -12 -12 -11 -12 -13 -13 -11 -12 -11 -10 -11 -10 -10 -10 -9 -10 -10 -9 -9 -9 -7 -6 -7 -6 -6 -7 -7 -7 -7 -7 -6 -5 -5 -5 -5 -4 -5
-12 -12 -12 -12 -12 -12 -12 -12 -12 -12 -12 -12 -12 -13 -13 -13 -11 -12 -11 -11 -10 -11 -10 -10 -11 -10 -10 -9 -9 -8 -7 -7 -7 -5 -5 -5 -6 -7 -8 -7 -7 -5 -5 -5 -4 -4 -4
-12 -12 -12 -12 -13 -12 -12 -12 -12 -12 -12 -13 -12 -13 -14 -14 -12 -12 -12 -11 -12 -11 -12 -12 -11 -11 -10 -8 -8 -8 -7 -7 -6 -6 -6 -6 -5 -5 -5 -5 -6 -5 -5 -5 -5 -5 -5